Observation data for Earth on 01/13/2021      Previous  Date  Next       Current Mesonet Observations  Soil Data  Daily Summary Page  Observations in Plain Language
KEA1 130600Z 26009KT M03/M05 A3018 RMK A01 T10251045  RH  086%=      5-min Rain = 0
KEA1 130601Z 26008KT M03/M05 A3018 RMK A01 T10251046  RH  086%=      5-min Rain = 0
KEA1 130602Z 26008KT M03/M05 A3018 RMK A01 T10261047  RH  086%=      5-min Rain = 0
KEA1 130603Z 27008KT M03/M05 A3018 RMK A01 T10271047  RH  086%=      5-min Rain = 0
KEA1 130604Z 27009KT M03/M05 A3018 RMK A01 T10281047  RH  087%=      5-min Rain = 0
KEA1 130605Z 27009KT M03/M05 A3018 RMK A01 T10291047  RH  087%=      5-min Rain = 0
KEA1 130606Z 27009KT M03/M05 A3018 RMK A01 T10291047  RH  088%=      5-min Rain = 0
KEA1 130607Z 27009KT M03/M05 A3018 RMK A01 T10281046  RH  088%=      5-min Rain = 0
KEA1 130608Z 26008KT M03/M05 A3018 RMK A01 T10281046  RH  088%=      5-min Rain = 0
KEA1 130609Z 26008KT M03/M05 A3018 RMK A01 T10281045  RH  088%=      5-min Rain = 0
KEA1 130610Z 26008KT M03/M05 A3018 RMK A01 T10281045  RH  088%=      5-min Rain = 0
KEA1 130611Z 26008KT M03/M05 A3018 RMK A01 T10271045  RH  088%=      5-min Rain = 0
KEA1 130612Z 25008KT M03/M04 A3018 RMK A01 T10251043  RH  088%=      5-min Rain = 0
KEA1 130613Z 25008KT M02/M04 A3018 RMK A01 T10241043  RH  087%=      5-min Rain = 0
KEA1 130614Z 25008KT M02/M04 A3018 RMK A01 T10231044  RH  086%=      5-min Rain = 0
KEA1 130615Z 25008KT M02/M04 A3019 RMK A01 T10231044  RH  086%=      5-min Rain = 0
KEA1 130616Z 25008KT M02/M05 A3019 RMK A01 T10231045  RH  085%=      5-min Rain = 0
KEA1 130617Z 25008KT M02/M05 A3019 RMK A01 T10231045  RH  085%=      5-min Rain = 0
KEA1 130618Z 25008KT M02/M05 A3018 RMK A01 T10231045  RH  085%=      5-min Rain = 0
KEA1 130619Z 25008KT M02/M05 A3018 RMK A01 T10231045  RH  085%=      5-min Rain = 0
KEA1 130620Z 25007KT M02/M05 A3018 RMK A01 T10231045  RH  085%=      5-min Rain = 0
KEA1 130621Z 25007KT M02/M05 A3018 RMK A01 T10231045  RH  085%=      5-min Rain = 0
KEA1 130622Z 25007KT M02/M05 A3018 RMK A01 T10231046  RH  085%=      5-min Rain = 0
KEA1 130623Z 25007KT M02/M05 A3018 RMK A01 T10241046  RH  085%=      5-min Rain = 0
KEA1 130624Z 25007KT M02/M05 A3018 RMK A01 T10241046  RH  085%=      5-min Rain = 0
KEA1 130625Z 25007KT M02/M05 A3018 RMK A01 T10241046  RH  085%=      5-min Rain = 0
KEA1 130626Z 25007KT M03/M05 A3018 RMK A01 T10251046  RH  085%=      5-min Rain = 0
KEA1 130627Z 25007KT M03/M05 A3018 RMK A01 T10251047  RH  085%=      5-min Rain = 0
KEA1 130628Z 25007KT M03/M05 A3018 RMK A01 T10261047  RH  085%=      5-min Rain = 0
KEA1 130629Z 25007KT M03/M05 A3018 RMK A01 T10261047  RH  086%=      5-min Rain = 0
KEA1 130630Z 25007KT M03/M05 A3018 RMK A01 T10271048  RH  086%=      5-min Rain = 0
KEA1 130631Z 25007KT M03/M05 A3018 RMK A01 T10281048  RH  086%=      5-min Rain = 0
KEA1 130632Z 25007KT M03/M05 A3018 RMK A01 T10281048  RH  086%=      5-min Rain = 0
KEA1 130633Z 25007KT M03/M05 A3018 RMK A01 T10291048  RH  086%=      5-min Rain = 0
KEA1 130634Z 26008KT M03/M05 A3018 RMK A01 T10291048  RH  087%=      5-min Rain = 0
KEA1 130635Z 26008KT M03/M05 A3018 RMK A01 T10291048  RH  087%=      5-min Rain = 0
KEA1 130636Z 26008KT M03/M05 A3018 RMK A01 T10301049  RH  087%=      5-min Rain = 0
KEA1 130637Z 26007KT M03/M05 A3018 RMK A01 T10301049  RH  087%=      5-min Rain = 0
KEA1 130638Z 25008KT M03/M05 A3018 RMK A01 T10301048  RH  087%=      5-min Rain = 0
KEA1 130639Z 25008KT M03/M05 A3018 RMK A01 T10301048  RH  087%=      5-min Rain = 0
KEA1 130640Z 25008KT M03/M05 A3018 RMK A01 T10301048  RH  087%=      5-min Rain = 0
KEA1 130641Z 25009KT M03/M05 A3018 RMK A01 T10301048  RH  087%=      5-min Rain = 0
KEA1 130642Z 25009KT M03/M05 A3018 RMK A01 T10291048  RH  087%=      5-min Rain = 0
KEA1 130643Z 25009KT M03/M05 A3018 RMK A01 T10291048  RH  087%=      5-min Rain = 0
KEA1 130644Z 25009KT M03/M05 A3018 RMK A01 T10291048  RH  087%=      5-min Rain = 0
KEA1 130645Z 25009KT M03/M05 A3018 RMK A01 T10291049  RH  087%=      5-min Rain = 0
KEA1 130646Z 25009KT M03/M05 A3018 RMK A01 T10291049  RH  087%=      5-min Rain = 0
KEA1 130647Z 25009KT M03/M05 A3018 RMK A01 T10291048  RH  086%=      5-min Rain = 0
KEA1 130648Z 24009KT M03/M05 A3018 RMK A01 T10281047  RH  086%=      5-min Rain = 0
KEA1 130649Z 24009KT M03/M05 A3018 RMK A01 T10271047  RH  086%=      5-min Rain = 0
KEA1 130650Z 24009KT M03/M05 A3018 RMK A01 T10261047  RH  086%=      5-min Rain = 0
KEA1 130651Z 25009KT M03/M05 A3018 RMK A01 T10261047  RH  085%=      5-min Rain = 0
KEA1 130652Z 24009KT M03/M05 A3018 RMK A01 T10261048  RH  085%=      5-min Rain = 0
KEA1 130653Z 25009KT M03/M05 A3018 RMK A01 T10261048  RH  085%=      5-min Rain = 0
KEA1 130654Z 24009KT M03/M05 A3018 RMK A01 T10261048  RH  085%=      5-min Rain = 0
KEA1 130655Z 24009KT M03/M05 A3018 RMK A01 T10261049  RH  085%=      5-min Rain = 0
KEA1 130656Z 24009KT M03/M05 A3018 RMK A01 T10271049  RH  085%=      5-min Rain = 0
KEA1 130657Z 24009KT M03/M05 A3018 RMK A01 T10261048  RH  085%=      5-min Rain = 0
KEA1 130658Z 25009KT M03/M05 A3018 RMK A01 T10251048  RH  084%=      5-min Rain = 0
KEA1 130659Z 24009KT M03/M05 A3018 RMK A01 T10251048  RH  084%=      5-min Rain = 0
KEA1 130700Z 24009KT M03/M05 A3018 RMK A01 T10251048  RH  084%=      5-min Rain = 0
KEA1 130701Z 25008KT M03/M05 A3018 RMK A01 T10251048  RH  084%=      5-min Rain = 0
KEA1 130702Z 25009KT M02/M05 A3018 RMK A01 T10241047  RH  084%=      5-min Rain = 0
KEA1 130703Z 25008KT M02/M05 A3018 RMK A01 T10241047  RH  084%=      5-min Rain = 0
KEA1 130704Z 25009KT M02/M05 A3018 RMK A01 T10241047  RH  084%=      5-min Rain = 0
KEA1 130705Z 25008KT M02/M05 A3018 RMK A01 T10241047  RH  084%=      5-min Rain = 0
KEA1 130706Z 24008KT M03/M05 A3018 RMK A01 T10261048  RH  085%=      5-min Rain = 0
KEA1 130707Z 24008KT M03/M05 A3018 RMK A01 T10271049  RH  085%=      5-min Rain = 0
KEA1 130708Z 24008KT M03/M05 A3018 RMK A01 T10271048  RH  085%=      5-min Rain = 0
KEA1 130709Z 24008KT M03/M05 A3018 RMK A01 T10281048  RH  086%=      5-min Rain = 0
KEA1 130710Z 24008KT M03/M05 A3018 RMK A01 T10281048  RH  086%=      5-min Rain = 0
KEA1 130711Z 25008KT M03/M05 A3018 RMK A01 T10281048  RH  086%=      5-min Rain = 0
KEA1 130712Z 25008KT M03/M05 A3018 RMK A01 T10281048  RH  086%=      5-min Rain = 0
KEA1 130713Z 25009KT M03/M05 A3018 RMK A01 T10281048  RH  086%=      5-min Rain = 0
KEA1 130714Z 25009KT M03/M05 A3018 RMK A01 T10281048  RH  086%=      5-min Rain = 0
KEA1 130715Z 25008KT M03/M05 A3018 RMK A01 T10281048  RH  087%=      5-min Rain = 0
KEA1 130716Z 25009KT M03/M05 A3018 RMK A01 T10291048  RH  087%=      5-min Rain = 0
KEA1 130717Z 25009KT M03/M05 A3018 RMK A01 T10291048  RH  087%=      5-min Rain = 0
KEA1 130718Z 25008KT M03/M05 A3018 RMK A01 T10281047  RH  087%=      5-min Rain = 0
KEA1 130719Z 24008KT M03/M05 A3018 RMK A01 T10281047  RH  087%=      5-min Rain = 0
KEA1 130720Z 24008KT M03/M05 A3018 RMK A01 T10281047  RH  087%=      5-min Rain = 0
KEA1 130721Z 24008KT M03/M05 A3018 RMK A01 T10291048  RH  087%=      5-min Rain = 0
KEA1 130722Z 24008KT M03/M05 A3018 RMK A01 T10301048  RH  087%=      5-min Rain = 0
KEA1 130723Z 24008KT M03/M05 A3018 RMK A01 T10301048  RH  087%=      5-min Rain = 0
KEA1 130724Z 24008KT M03/M05 A3018 RMK A01 T10301048  RH  087%=      5-min Rain = 0
KEA1 130725Z 25008KT M03/M05 A3018 RMK A01 T10311049  RH  087%=      5-min Rain = 0
KEA1 130726Z 24008KT M03/M05 A3018 RMK A01 T10311049  RH  087%=      5-min Rain = 0
KEA1 130727Z 25008KT M03/M05 A3018 RMK A01 T10311048  RH  088%=      5-min Rain = 0
KEA1 130728Z 25008KT M03/M05 A3018 RMK A01 T10311048  RH  088%=      5-min Rain = 0
KEA1 130729Z 25008KT M03/M05 A3018 RMK A01 T10301048  RH  088%=      5-min Rain = 0
KEA1 130730Z 25008KT M03/M05 A3018 RMK A01 T10311049  RH  088%=      5-min Rain = 0
KEA1 130731Z 24008KT M03/M05 A3018 RMK A01 T10311048  RH  088%=      5-min Rain = 0
KEA1 130732Z 25008KT M03/M05 A3018 RMK A01 T10301048  RH  088%=      5-min Rain = 0
KEA1 130733Z 25008KT M03/M05 A3018 RMK A01 T10311048  RH  088%=      5-min Rain = 0
KEA1 130734Z 25008KT M03/M05 A3018 RMK A01 T10311048  RH  088%=      5-min Rain = 0
KEA1 130735Z 25008KT M03/M05 A3018 RMK A01 T10311048  RH  088%=      5-min Rain = 0
KEA1 130736Z 25008KT M03/M05 A3018 RMK A01 T10301048  RH  088%=      5-min Rain = 0
KEA1 130737Z 24008KT M03/M05 A3018 RMK A01 T10311048  RH  088%=      5-min Rain = 0
KEA1 130738Z 25008KT M03/M05 A3018 RMK A01 T10311049  RH  088%=      5-min Rain = 0
KEA1 130739Z 24007KT M03/M05 A3018 RMK A01 T10311048  RH  088%=      5-min Rain = 0
KEA1 130740Z 25007KT M03/M05 A3018 RMK A01 T10311049  RH  088%=      5-min Rain = 0
KEA1 130741Z 25007KT M03/M05 A3018 RMK A01 T10311048  RH  088%=      5-min Rain = 0
KEA1 130742Z 25007KT M03/M05 A3017 RMK A01 T10321048  RH  088%=      5-min Rain = 0
KEA1 130743Z 24007KT M03/M05 A3017 RMK A01 T10321049  RH  088%=      5-min Rain = 0
KEA1 130744Z 25007KT M03/M05 A3017 RMK A01 T10321049  RH  088%=      5-min Rain = 0
KEA1 130745Z 25007KT M03/M05 A3017 RMK A01 T10331049  RH  088%=      5-min Rain = 0
KEA1 130746Z 24007KT M03/M05 A3017 RMK A01 T10331049  RH  088%=      5-min Rain = 0
KEA1 130747Z 24007KT M03/M05 A3017 RMK A01 T10331050  RH  088%=      5-min Rain = 0
KEA1 130748Z 24007KT M03/M05 A3017 RMK A01 T10331049  RH  089%=      5-min Rain = 0
KEA1 130749Z 25007KT M03/M05 A3017 RMK A01 T10331049  RH  089%=      5-min Rain = 0
KEA1 130750Z 25007KT M03/M05 A3017 RMK A01 T10331049  RH  089%=      5-min Rain = 0
KEA1 130751Z 25007KT M03/M05 A3017 RMK A01 T10331049  RH  089%=      5-min Rain = 0
KEA1 130752Z 25007KT M03/M05 A3017 RMK A01 T10331049  RH  089%=      5-min Rain = 0
KEA1 130753Z 25007KT M03/M05 A3017 RMK A01 T10331049  RH  088%=      5-min Rain = 0
KEA1 130754Z 25007KT M03/M05 A3017 RMK A01 T10331049  RH  089%=      5-min Rain = 0
KEA1 130755Z 25007KT M03/M05 A3017 RMK A01 T10331049  RH  089%=      5-min Rain = 0
KEA1 130756Z 25007KT M03/M05 A3017 RMK A01 T10331049  RH  089%=      5-min Rain = 0
KEA1 130757Z 25007KT M03/M05 A3017 RMK A01 T10331049  RH  088%=      5-min Rain = 0
KEA1 130758Z 25007KT M03/M05 A3017 RMK A01 T10331050  RH  088%=      5-min Rain = 0
KEA1 130759Z 25006KT M03/M05 A3017 RMK A01 T10331049  RH  089%=      5-min Rain = 0
KEA1 130800Z 25006KT M03/M05 A3017 RMK A01 T10331049  RH  089%=      5-min Rain = 0
KEA1 130801Z 25007KT M03/M05 A3017 RMK A01 T10331050  RH  088%=      5-min Rain = 0
KEA1 130802Z 25007KT M03/M05 A3017 RMK A01 T10341050  RH  088%=      5-min Rain = 0
KEA1 130803Z 25007KT M03/M05 A3017 RMK A01 T10341050  RH  089%=      5-min Rain = 0
KEA1 130804Z 25006KT M03/M05 A3017 RMK A01 T10341050  RH  089%=      5-min Rain = 0
KEA1 130805Z 25007KT M03/M05 A3017 RMK A01 T10341050  RH  089%=      5-min Rain = 0
KEA1 130806Z 25007KT M04/M05 A3017 RMK A01 T10351051  RH  089%=      5-min Rain = 0
KEA1 130807Z 25007KT M04/M05 A3017 RMK A01 T10351051  RH  089%=      5-min Rain = 0
KEA1 130808Z 25007KT M04/M05 A3017 RMK A01 T10351051  RH  089%=      5-min Rain = 0
KEA1 130809Z 25007KT M04/M05 A3017 RMK A01 T10361051  RH  089%=      5-min Rain = 0
KEA1 130810Z 25007KT M04/M05 A3017 RMK A01 T10361052  RH  089%=      5-min Rain = 0
KEA1 130811Z 25006KT M04/M05 A3017 RMK A01 T10371052  RH  089%=      5-min Rain = 0
KEA1 130812Z 25007KT M04/M05 A3017 RMK A01 T10381053  RH  089%=      5-min Rain = 0
KEA1 130813Z 25007KT M04/M05 A3017 RMK A01 T10381054  RH  089%=      5-min Rain = 0
KEA1 130814Z 25007KT M04/M05 A3017 RMK A01 T10391054  RH  089%=      5-min Rain = 0
KEA1 130815Z 25007KT M04/M05 A3017 RMK A01 T10381053  RH  090%=      5-min Rain = 0
KEA1 130816Z 25007KT M04/M05 A3017 RMK A01 T10391054  RH  090%=      5-min Rain = 0
KEA1 130817Z 25007KT M04/M05 A3017 RMK A01 T10401054  RH  090%=      5-min Rain = 0
KEA1 130818Z 25007KT M04/M05 A3017 RMK A01 T10401054  RH  090%=      5-min Rain = 0
KEA1 130819Z 25007KT M04/M05 A3017 RMK A01 T10401054  RH  090%=      5-min Rain = 0
KEA1 130820Z 25007KT M04/M05 A3017 RMK A01 T10401054  RH  090%=      5-min Rain = 0
KEA1 130821Z 25007KT M04/M05 A3017 RMK A01 T10401054  RH  090%=      5-min Rain = 0
KEA1 130822Z 25007KT M04/M06 A3017 RMK A01 T10411055  RH  090%=      5-min Rain = 0
KEA1 130823Z 26007KT M04/M06 A3017 RMK A01 T10411055  RH  090%=      5-min Rain = 0
KEA1 130824Z 26007KT M04/M06 A3017 RMK A01 T10411055  RH  090%=      5-min Rain = 0
KEA1 130825Z 26007KT M04/M06 A3017 RMK A01 T10421055  RH  090%=      5-min Rain = 0
KEA1 130826Z 26007KT M04/M06 A3017 RMK A01 T10421056  RH  090%=      5-min Rain = 0
KEA1 130827Z 26007KT M04/M06 A3017 RMK A01 T10431057  RH  090%=      5-min Rain = 0
KEA1 130828Z 25007KT M04/M06 A3017 RMK A01 T10441057  RH  090%=      5-min Rain = 0
KEA1 130829Z 25007KT M04/M06 A3017 RMK A01 T10441058  RH  090%=      5-min Rain = 0
KEA1 130830Z 26007KT M04/M06 A3017 RMK A01 T10441057  RH  090%=      5-min Rain = 0
KEA1 130831Z 26007KT M04/M06 A3017 RMK A01 T10441058  RH  090%=      5-min Rain = 0
KEA1 130832Z 26007KT M04/M06 A3017 RMK A01 T10441058  RH  090%=      5-min Rain = 0
KEA1 130833Z 26007KT M04/M06 A3017 RMK A01 T10441058  RH  090%=      5-min Rain = 0
KEA1 130834Z 26007KT M04/M06 A3017 RMK A01 T10441058  RH  090%=      5-min Rain = 0
KEA1 130835Z 26007KT M04/M06 A3017 RMK A01 T10441058  RH  090%=      5-min Rain = 0
KEA1 130836Z 26007KT M04/M06 A3017 RMK A01 T10441058  RH  090%=      5-min Rain = 0
KEA1 130837Z 26006KT M05/M06 A3017 RMK A01 T10451059  RH  090%=      5-min Rain = 0
KEA1 130838Z 25007KT M05/M06 A3017 RMK A01 T10451059  RH  090%=      5-min Rain = 0
KEA1 130839Z 26006KT M05/M06 A3017 RMK A01 T10451059  RH  090%=      5-min Rain = 0
KEA1 130840Z 25006KT M05/M06 A3017 RMK A01 T10451059  RH  090%=      5-min Rain = 0
KEA1 130841Z 26006KT M05/M06 A3017 RMK A01 T10461060  RH  090%=      5-min Rain = 0
KEA1 130842Z 26006KT M05/M06 A3017 RMK A01 T10461061  RH  090%=      5-min Rain = 0
KEA1 130843Z 26006KT M05/M06 A3016 RMK A01 T10471061  RH  090%=      5-min Rain = 0
KEA1 130844Z 26006KT M05/M06 A3016 RMK A01 T10471061  RH  090%=      5-min Rain = 0
KEA1 130845Z 26006KT M05/M06 A3016 RMK A01 T10471061  RH  090%=      5-min Rain = 0
KEA1 130846Z 26006KT M05/M06 A3016 RMK A01 T10471061  RH  090%=      5-min Rain = 0
KEA1 130847Z 26006KT M05/M06 A3016 RMK A01 T10481062  RH  090%=      5-min Rain = 0
KEA1 130848Z 26006KT M05/M06 A3016 RMK A01 T10491063  RH  090%=      5-min Rain = 0
KEA1 130849Z 26006KT M05/M06 A3016 RMK A01 T10491063  RH  090%=      5-min Rain = 0
KEA1 130850Z 26006KT M05/M06 A3016 RMK A01 T10491063  RH  090%=      5-min Rain = 0
KEA1 130851Z 26006KT M05/M06 A3016 RMK A01 T10501064  RH  090%=      5-min Rain = 0
KEA1 130852Z 26006KT M05/M06 A3016 RMK A01 T10501064  RH  090%=      5-min Rain = 0
KEA1 130853Z 26006KT M05/M06 A3016 RMK A01 T10511064  RH  090%=      5-min Rain = 0
KEA1 130854Z 26006KT M05/M07 A3016 RMK A01 T10511065  RH  090%=      5-min Rain = 0
KEA1 130855Z 25005KT M05/M07 A3016 RMK A01 T10521065  RH  090%=      5-min Rain = 0
KEA1 130856Z 25005KT M05/M07 A3016 RMK A01 T10521066  RH  090%=      5-min Rain = 0
KEA1 130857Z 25006KT M05/M07 A3016 RMK A01 T10541067  RH  090%=      5-min Rain = 0
KEA1 130858Z 25006KT M05/M07 A3015 RMK A01 T10541067  RH  091%=      5-min Rain = 0
KEA1 130859Z 25006KT M05/M07 A3015 RMK A01 T10541067  RH  091%=      5-min Rain = 0
KEA1 130900Z 25006KT M05/M07 A3015 RMK A01 T10541066  RH  091%=      5-min Rain = 0
KEA1 130901Z 25007KT M05/M07 A3015 RMK A01 T10541066  RH  092%=      5-min Rain = 0
KEA1 130902Z 25007KT M05/M07 A3015 RMK A01 T10541065  RH  092%=      5-min Rain = 0
KEA1 130903Z 25007KT M05/M06 A3015 RMK A01 T10531064  RH  092%=      5-min Rain = 0
KEA1 130904Z 25007KT M05/M07 A3015 RMK A01 T10531065  RH  091%=      5-min Rain = 0
KEA1 130905Z 25007KT M05/M07 A3015 RMK A01 T10531065  RH  091%=      5-min Rain = 0
KEA1 130906Z 25007KT M05/M06 A3015 RMK A01 T10521063  RH  092%=      5-min Rain = 0
KEA1 130907Z 25007KT M05/M06 A3015 RMK A01 T10511063  RH  092%=      5-min Rain = 0
KEA1 130908Z 25007KT M05/M06 A3015 RMK A01 T10501062  RH  091%=      5-min Rain = 0
KEA1 130909Z 25007KT M05/M06 A3014 RMK A01 T10501062  RH  091%=      5-min Rain = 0
KEA1 130910Z 25007KT M05/M06 A3014 RMK A01 T10501063  RH  091%=      5-min Rain = 0
KEA1 130911Z 25007KT M05/M06 A3014 RMK A01 T10501063  RH  090%=      5-min Rain = 0
KEA1 130912Z 25007KT M05/M06 A3014 RMK A01 T10491063  RH  090%=      5-min Rain = 0
KEA1 130913Z 25007KT M05/M06 A3014 RMK A01 T10491063  RH  090%=      5-min Rain = 0
KEA1 130914Z 25007KT M05/M06 A3014 RMK A01 T10501064  RH  090%=      5-min Rain = 0
KEA1 130915Z 25008KT M05/M06 A3014 RMK A01 T10501063  RH  090%=      5-min Rain = 0
KEA1 130916Z 24007KT M05/M06 A3014 RMK A01 T10491063  RH  090%=      5-min Rain = 0
KEA1 130917Z 24007KT M05/M06 A3014 RMK A01 T10491063  RH  090%=      5-min Rain = 0
KEA1 130918Z 25007KT M05/M06 A3014 RMK A01 T10481062  RH  090%=      5-min Rain = 0
KEA1 130919Z 25007KT M05/M06 A3014 RMK A01 T10481062  RH  090%=      5-min Rain = 0
KEA1 130920Z 24007KT M05/M06 A3014 RMK A01 T10471062  RH  089%=      5-min Rain = 0
KEA1 130921Z 24007KT M05/M06 A3014 RMK A01 T10471063  RH  089%=      5-min Rain = 0
KEA1 130922Z 24006KT M05/M06 A3014 RMK A01 T10481063  RH  089%=      5-min Rain = 0
KEA1 130923Z 24006KT M05/M06 A3014 RMK A01 T10481064  RH  089%=      5-min Rain = 0
KEA1 130924Z 24006KT M05/M06 A3014 RMK A01 T10481064  RH  089%=      5-min Rain = 0
KEA1 130925Z 24005KT M05/M06 A3014 RMK A01 T10491064  RH  089%=      5-min Rain = 0
KEA1 130926Z 24006KT M05/M06 A3014 RMK A01 T10491064  RH  089%=      5-min Rain = 0
KEA1 130927Z 24006KT M05/M06 A3014 RMK A01 T10491064  RH  089%=      5-min Rain = 0
KEA1 130928Z 25006KT M05/M06 A3013 RMK A01 T10491064  RH  089%=      5-min Rain = 0
KEA1 130929Z 24006KT M05/M06 A3013 RMK A01 T10491064  RH  089%=      5-min Rain = 0
KEA1 130930Z 24006KT M05/M07 A3013 RMK A01 T10501065  RH  089%=      5-min Rain = 0
KEA1 130931Z 24006KT M05/M06 A3013 RMK A01 T10491064  RH  089%=      5-min Rain = 0
KEA1 130932Z 24006KT M05/M07 A3013 RMK A01 T10491065  RH  089%=      5-min Rain = 0
KEA1 130933Z 24006KT M05/M07 A3013 RMK A01 T10491065  RH  089%=      5-min Rain = 0
KEA1 130934Z 24007KT M05/M07 A3013 RMK A01 T10501066  RH  089%=      5-min Rain = 0
KEA1 130935Z 24008KT M05/M07 A3013 RMK A01 T10501066  RH  089%=      5-min Rain = 0
KEA1 130936Z 24008KT M05/M07 A3013 RMK A01 T10501065  RH  089%=      5-min Rain = 0
KEA1 130937Z 24008KT M05/M06 A3013 RMK A01 T10471063  RH  089%=      5-min Rain = 0
KEA1 130938Z 24009KT M05/M06 A3013 RMK A01 T10461062  RH  089%=      5-min Rain = 0
KEA1 130939Z 24009KT M04/M06 A3013 RMK A01 T10441061  RH  088%=      5-min Rain = 0
KEA1 130940Z 24009KT M04/M06 A3013 RMK A01 T10421061  RH  087%=      5-min Rain = 0
KEA1 130941Z 24009KT M04/M06 A3013 RMK A01 T10411061  RH  086%=      5-min Rain = 0
KEA1 130942Z 24009KT M04/M06 A3013 RMK A01 T10401061  RH  086%=      5-min Rain = 0
KEA1 130943Z 24009KT M04/M06 A3013 RMK A01 T10401061  RH  085%=      5-min Rain = 0
KEA1 130944Z 25009KT M04/M06 A3013 RMK A01 T10381060  RH  085%=      5-min Rain = 0
KEA1 130945Z 24009KT M04/M06 A3012 RMK A01 T10381061  RH  084%=      5-min Rain = 0
KEA1 130946Z 24010KT M04/M06 A3012 RMK A01 T10381061  RH  084%=      5-min Rain = 0
KEA1 130947Z 24010KT M04/M06 A3012 RMK A01 T10381061  RH  084%=      5-min Rain = 0
KEA1 130948Z 25010KT M04/M06 A3012 RMK A01 T10361060  RH  084%=      5-min Rain = 0
KEA1 130949Z 24009KT M04/M06 A3013 RMK A01 T10351059  RH  083%=      5-min Rain = 0
KEA1 130950Z 25008KT M04/M06 A3013 RMK A01 T10351061  RH  082%=      5-min Rain = 0
KEA1 130951Z 25008KT M04/M06 A3013 RMK A01 T10351062  RH  082%=      5-min Rain = 0
KEA1 130952Z 25007KT M04/M06 A3013 RMK A01 T10361062  RH  082%=      5-min Rain = 0
KEA1 130953Z 25007KT M04/M06 A3013 RMK A01 T10381064  RH  082%=      5-min Rain = 0
KEA1 130954Z 25008KT M04/M07 A3012 RMK A01 T10401066  RH  082%=      5-min Rain = 0
KEA1 130955Z 25008KT M04/M07 A3012 RMK A01 T10411066  RH  083%=      5-min Rain = 0
KEA1 130956Z 24007KT M04/M07 A3012 RMK A01 T10421066  RH  083%=      5-min Rain = 0
KEA1 130957Z 24007KT M04/M07 A3012 RMK A01 T10441067  RH  084%=      5-min Rain = 0
KEA1 130958Z 24007KT M05/M07 A3012 RMK A01 T10451068  RH  084%=      5-min Rain = 0
KEA1 130959Z 24007KT M05/M07 A3012 RMK A01 T10461067  RH  085%=      5-min Rain = 0
KEA1 131000Z 24008KT M05/M07 A3012 RMK A01 T10461067  RH  085%=      5-min Rain = 0
KEA1 131001Z 24008KT M05/M07 A3012 RMK A01 T10451065  RH  086%=      5-min Rain = 0
KEA1 131002Z 24008KT M04/M06 A3012 RMK A01 T10431064  RH  086%=      5-min Rain = 0
KEA1 131003Z 24010KT M04/M06 A3012 RMK A01 T10421063  RH  085%=      5-min Rain = 0
KEA1 131004Z 24010KT M04/M06 A3011 RMK A01 T10401062  RH  085%=      5-min Rain = 0
KEA1 131005Z 24010KT M04/M06 A3011 RMK A01 T10381060  RH  085%=      5-min Rain = 0
KEA1 131006Z 24009KT M04/M06 A3011 RMK A01 T10361060  RH  084%=      5-min Rain = 0
KEA1 131007Z 24010KT M03/M06 A3011 RMK A01 T10341059  RH  083%=      5-min Rain = 0
KEA1 131008Z 24008KT M03/M06 A3011 RMK A01 T10341060  RH  082%=      5-min Rain = 0
KEA1 131009Z 24010KT M03/M06 A3011 RMK A01 T10341060  RH  082%=      5-min Rain = 0
KEA1 131010Z 24009KT M03/M06 A3011 RMK A01 T10331059  RH  082%=      5-min Rain = 0
KEA1 131011Z 24009KT M03/M06 A3011 RMK A01 T10331060  RH  081%=      5-min Rain = 0
KEA1 131012Z 24009KT M03/M06 A3011 RMK A01 T10331061  RH  081%=      5-min Rain = 0
KEA1 131013Z 25009KT M03/M06 A3011 RMK A01 T10341061  RH  081%=      5-min Rain = 0
KEA1 131014Z 24010KT M03/M06 A3011 RMK A01 T10341061  RH  081%=      5-min Rain = 0
KEA1 131015Z 25010KT M04/M06 A3011 RMK A01 T10351062  RH  081%=      5-min Rain = 0
KEA1 131016Z 25008KT M04/M06 A3011 RMK A01 T10351063  RH  081%=      5-min Rain = 0
KEA1 131017Z 25008KT M04/M06 A3011 RMK A01 T10361063  RH  081%=      5-min Rain = 0
KEA1 131018Z 25009KT M04/M06 A3011 RMK A01 T10371064  RH  082%=      5-min Rain = 0
KEA1 131019Z 25008KT M04/M07 A3011 RMK A01 T10391066  RH  082%=      5-min Rain = 0
KEA1 131020Z 25008KT M04/M07 A3011 RMK A01 T10411067  RH  083%=      5-min Rain = 0
KEA1 131021Z 25008KT M04/M07 A3011 RMK A01 T10421066  RH  083%=      5-min Rain = 0
KEA1 131022Z 25008KT M04/M07 A3011 RMK A01 T10421066  RH  084%=      5-min Rain = 0
KEA1 131023Z 24008KT M04/M07 A3011 RMK A01 T10431066  RH  084%=      5-min Rain = 0
KEA1 131024Z 24009KT M04/M07 A3011 RMK A01 T10431066  RH  084%=      5-min Rain = 0
KEA1 131025Z 24008KT M04/M07 A3011 RMK A01 T10431066  RH  084%=      5-min Rain = 0
KEA1 131026Z 24008KT M04/M07 A3011 RMK A01 T10431066  RH  084%=      5-min Rain = 0
KEA1 131027Z 24007KT M04/M07 A3011 RMK A01 T10431066  RH  084%=      5-min Rain = 0
KEA1 131028Z 24007KT M04/M07 A3011 RMK A01 T10441066  RH  084%=      5-min Rain = 0
KEA1 131029Z 25008KT M04/M07 A3011 RMK A01 T10441066  RH  085%=      5-min Rain = 0
KEA1 131030Z 25009KT M04/M07 A3011 RMK A01 T10431065  RH  085%=      5-min Rain = 0
KEA1 131031Z 25009KT M04/M07 A3011 RMK A01 T10431065  RH  085%=      5-min Rain = 0
KEA1 131032Z 25009KT M04/M07 A3011 RMK A01 T10431065  RH  085%=      5-min Rain = 0
KEA1 131033Z 25008KT M04/M07 A3011 RMK A01 T10421065  RH  084%=      5-min Rain = 0
KEA1 131034Z 25008KT M04/M07 A3011 RMK A01 T10431066  RH  084%=      5-min Rain = 0
KEA1 131035Z 25009KT M04/M07 A3011 RMK A01 T10431067  RH  084%=      5-min Rain = 0
KEA1 131036Z 25008KT M04/M07 A301 RMK A01 T10441067  RH  084%=      5-min Rain = 0
KEA1 131037Z 24008KT M04/M07 A301 RMK A01 T10441067  RH  084%=      5-min Rain = 0
KEA1 131038Z 25008KT M05/M07 A301 RMK A01 T10451067  RH  084%=      5-min Rain = 0
KEA1 131039Z 24007KT M05/M07 A301 RMK A01 T10451067  RH  084%=      5-min Rain = 0
KEA1 131040Z 25007KT M05/M07 A301 RMK A01 T10451067  RH  084%=      5-min Rain = 0
KEA1 131041Z 25008KT M05/M07 A301 RMK A01 T10451067  RH  084%=      5-min Rain = 0
KEA1 131042Z 24008KT M04/M07 A301 RMK A01 T10441067  RH  084%=      5-min Rain = 0
KEA1 131043Z 24008KT M04/M07 A301 RMK A01 T10431066  RH  084%=      5-min Rain = 0
KEA1 131044Z 24007KT M04/M07 A301 RMK A01 T10431066  RH  084%=      5-min Rain = 0
KEA1 131045Z 25008KT M04/M07 A301 RMK A01 T10431066  RH  084%=      5-min Rain = 0
KEA1 131046Z 24007KT M04/M07 A301 RMK A01 T10431067  RH  084%=      5-min Rain = 0
KEA1 131047Z 24008KT M04/M07 A301 RMK A01 T10431067  RH  084%=      5-min Rain = 0
KEA1 131048Z 25007KT M04/M07 A301 RMK A01 T10421066  RH  083%=      5-min Rain = 0
KEA1 131049Z 25008KT M04/M07 A301 RMK A01 T10411066  RH  083%=      5-min Rain = 0
KEA1 131050Z 25009KT M04/M07 A301 RMK A01 T10411066  RH  083%=      5-min Rain = 0
KEA1 131051Z 25009KT M04/M07 A301 RMK A01 T10401065  RH  083%=      5-min Rain = 0
KEA1 131052Z 25010KT M04/M07 A301 RMK A01 T10401066  RH  082%=      5-min Rain = 0
KEA1 131053Z 25009KT M04/M07 A301 RMK A01 T10401066  RH  082%=      5-min Rain = 0
KEA1 131054Z 25010KT M04/M07 A301 RMK A01 T10411067  RH  082%=      5-min Rain = 0
KEA1 131055Z 25010KT M04/M07 A301 RMK A01 T10421067  RH  082%=      5-min Rain = 0
KEA1 131056Z 25010KT M04/M07 A301 RMK A01 T10421067  RH  083%=      5-min Rain = 0
KEA1 131057Z 26010KT M04/M07 A301 RMK A01 T10421067  RH  083%=      5-min Rain = 0
KEA1 131058Z 26009KT M04/M07 A301 RMK A01 T10421067  RH  083%=      5-min Rain = 0
KEA1 131059Z 26009KT M04/M07 A301 RMK A01 T10431067  RH  083%=      5-min Rain = 0
KEA1 131100Z 26009KT M04/M07 A301 RMK A01 T10431067  RH  083%=      5-min Rain = 0
KEA1 131101Z 26009KT M04/M07 A301 RMK A01 T10441067  RH  084%=      5-min Rain = 0
KEA1 131102Z 26009KT M04/M07 A301 RMK A01 T10441068  RH  084%=      5-min Rain = 0
KEA1 131103Z 26009KT M05/M07 A301 RMK A01 T10451068  RH  084%=      5-min Rain = 0
KEA1 131104Z 26009KT M05/M07 A301 RMK A01 T10451068  RH  084%=      5-min Rain = 0
KEA1 131105Z 27009KT M05/M07 A3011 RMK A01 T10461069  RH  084%=      5-min Rain = 0
KEA1 131106Z 27009KT M05/M07 A3011 RMK A01 T10471069  RH  085%=      5-min Rain = 0
KEA1 131107Z 27010KT M05/M07 A3011 RMK A01 T10491070  RH  085%=      5-min Rain = 0
KEA1 131108Z 27009KT M05/M07 A3011 RMK A01 T10491070  RH  085%=      5-min Rain = 0
KEA1 131109Z 26009KT M05/M07 A301 RMK A01 T10491070  RH  086%=      5-min Rain = 0
KEA1 131110Z 27008KT M05/M07 A301 RMK A01 T10501070  RH  086%=      5-min Rain = 0
KEA1 131111Z 26009KT M05/M07 A301 RMK A01 T10511071  RH  086%=      5-min Rain = 0
KEA1 131112Z 26008KT M05/M07 A301 RMK A01 T10511070  RH  086%=      5-min Rain = 0
KEA1 131113Z 26008KT M05/M07 A301 RMK A01 T10511070  RH  086%=      5-min Rain = 0
KEA1 131114Z 26008KT M05/M07 A301 RMK A01 T10511071  RH  086%=      5-min Rain = 0
KEA1 131115Z 26008KT M05/M07 A301 RMK A01 T10521071  RH  087%=      5-min Rain = 0
KEA1 131116Z 26008KT M05/M07 A301 RMK A01 T10521071  RH  087%=      5-min Rain = 0
KEA1 131117Z 26008KT M05/M07 A301 RMK A01 T10521071  RH  087%=      5-min Rain = 0
KEA1 131118Z 26009KT M05/M07 A301 RMK A01 T10531071  RH  087%=      5-min Rain = 0
KEA1 131119Z 26009KT M05/M07 A301 RMK A01 T10531071  RH  087%=      5-min Rain = 0
KEA1 131120Z 26009KT M05/M07 A301 RMK A01 T10531072  RH  087%=      5-min Rain = 0
KEA1 131121Z 26009KT M05/M07 A301 RMK A01 T10531071  RH  087%=      5-min Rain = 0
KEA1 131122Z 26009KT M05/M07 A301 RMK A01 T10531071  RH  087%=      5-min Rain = 0
KEA1 131123Z 25008KT M05/M07 A3009 RMK A01 T10531072  RH  087%=      5-min Rain = 0
KEA1 131124Z 25008KT M05/M07 A3009 RMK A01 T10531072  RH  087%=      5-min Rain = 0
KEA1 131125Z 25009KT M05/M07 A3009 RMK A01 T10531072  RH  087%=      5-min Rain = 0
KEA1 131126Z 25009KT M05/M07 A3009 RMK A01 T10541072  RH  087%=      5-min Rain = 0
KEA1 131127Z 25010KT M05/M07 A3009 RMK A01 T10531072  RH  087%=      5-min Rain = 0
KEA1 131128Z 25010KT M05/M07 A3009 RMK A01 T10541073  RH  087%=      5-min Rain = 0
KEA1 131129Z 25010KT M05/M07 A3009 RMK A01 T10541073  RH  087%=      5-min Rain = 0
KEA1 131130Z 25010KT M05/M07 A3009 RMK A01 T10541073  RH  087%=      5-min Rain = 0
KEA1 131131Z 25009KT M05/M07 A3009 RMK A01 T10541073  RH  087%=      5-min Rain = 0
KEA1 131132Z 25009KT M05/M07 A3009 RMK A01 T10541073  RH  087%=      5-min Rain = 0
KEA1 131133Z 25009KT M05/M07 A3009 RMK A01 T10541072  RH  087%=      5-min Rain = 0
KEA1 131134Z 25009KT M05/M07 A3009 RMK A01 T10531072  RH  087%=      5-min Rain = 0
KEA1 131135Z 25009KT M05/M07 A3009 RMK A01 T10531072  RH  086%=      5-min Rain = 0
KEA1 131136Z 25009KT M05/M07 A3009 RMK A01 T10531072  RH  086%=      5-min Rain = 0
KEA1 131137Z 24007KT M05/M07 A3009 RMK A01 T10531073  RH  086%=      5-min Rain = 0
KEA1 131138Z 25008KT M05/M07 A3009 RMK A01 T10541073  RH  086%=      5-min Rain = 0
KEA1 131139Z 25009KT M05/M07 A3009 RMK A01 T10531072  RH  086%=      5-min Rain = 0
KEA1 131140Z 25009KT M05/M07 A3009 RMK A01 T10521072  RH  086%=      5-min Rain = 0
KEA1 131141Z 25009KT M05/M07 A3009 RMK A01 T10521072  RH  086%=      5-min Rain = 0
KEA1 131142Z 25009KT M05/M07 A3008 RMK A01 T10521072  RH  086%=      5-min Rain = 0
KEA1 131143Z 25009KT M05/M07 A3009 RMK A01 T10521073  RH  085%=      5-min Rain = 0
KEA1 131144Z 25009KT M05/M07 A3009 RMK A01 T10521073  RH  085%=      5-min Rain = 0
KEA1 131145Z 25009KT M05/M07 A3009 RMK A01 T10521073  RH  085%=      5-min Rain = 0
KEA1 131146Z 25009KT M05/M07 A3008 RMK A01 T10531074  RH  085%=      5-min Rain = 0
KEA1 131147Z 25009KT M05/M07 A3008 RMK A01 T10541074  RH  085%=      5-min Rain = 0
KEA1 131148Z 25009KT M05/M07 A3008 RMK A01 T10531074  RH  086%=      5-min Rain = 0
KEA1 131149Z 25009KT M05/M07 A3008 RMK A01 T10541074  RH  086%=      5-min Rain = 0
KEA1 131150Z 25009KT M05/M07 A3008 RMK A01 T10541074  RH  086%=      5-min Rain = 0
KEA1 131151Z 25009KT M05/M07 A3008 RMK A01 T10541074  RH  086%=      5-min Rain = 0
KEA1 131152Z 25008KT M05/M07 A3008 RMK A01 T10541074  RH  086%=      5-min Rain = 0
KEA1 131153Z 25008KT M05/M08 A3008 RMK A01 T10541075  RH  085%=      5-min Rain = 0
KEA1 131154Z 25008KT M06/M08 A3008 RMK A01 T10551075  RH  086%=      5-min Rain = 0
KEA1 131155Z 25009KT M06/M08 A3008 RMK A01 T10551075  RH  086%=      5-min Rain = 0
KEA1 131156Z 25008KT M06/M08 A3008 RMK A01 T10551075  RH  086%=      5-min Rain = 0
KEA1 131157Z 25008KT M06/M08 A3008 RMK A01 T10551076  RH  086%=      5-min Rain = 0
KEA1 131158Z 25009KT M06/M08 A3008 RMK A01 T10561076  RH  086%=      5-min Rain = 0
KEA1 131159Z 25009KT M06/M08 A3008 RMK A01 T10561076  RH  086%=      5-min Rain = 0
KEA1 131200Z 25009KT M06/M08 A3008 RMK A01 T10561076  RH  086%=      5-min Rain = 0
KEA1 131201Z 25009KT M06/M08 A3008 RMK A01 T10561076  RH  086%=      5-min Rain = 0
KEA1 131202Z 25009KT M06/M08 A3008 RMK A01 T10561076  RH  086%=      5-min Rain = 0
KEA1 131203Z 25009KT M06/M08 A3008 RMK A01 T10561076  RH  086%=      5-min Rain = 0
KEA1 131204Z 25009KT M06/M08 A3008 RMK A01 T10561076  RH  086%=      5-min Rain = 0
KEA1 131205Z 25009KT M06/M08 A3008 RMK A01 T10561077  RH  086%=      5-min Rain = 0
KEA1 131206Z 25009KT M06/M08 A3008 RMK A01 T10571077  RH  085%=      5-min Rain = 0
KEA1 131207Z 25009KT M06/M08 A3008 RMK A01 T10571077  RH  086%=      5-min Rain = 0
KEA1 131208Z 25009KT M06/M08 A3008 RMK A01 T10561077  RH  086%=      5-min Rain = 0
KEA1 131209Z 25009KT M06/M08 A3008 RMK A01 T10581078  RH  086%=      5-min Rain = 0
KEA1 131210Z 25009KT M06/M08 A3008 RMK A01 T10581078  RH  086%=      5-min Rain = 0
KEA1 131211Z 25009KT M06/M08 A3008 RMK A01 T10581078  RH  086%=      5-min Rain = 0
KEA1 131212Z 25008KT M06/M08 A3008 RMK A01 T10581078  RH  086%=      5-min Rain = 0
KEA1 131213Z 25008KT M06/M08 A3008 RMK A01 T10591078  RH  086%=      5-min Rain = 0
KEA1 131214Z 25008KT M06/M08 A3008 RMK A01 T10581078  RH  086%=      5-min Rain = 0
KEA1 131215Z 25007KT M06/M08 A3008 RMK A01 T10581078  RH  086%=      5-min Rain = 0
KEA1 131216Z 25007KT M06/M08 A3008 RMK A01 T10581078  RH  086%=      5-min Rain = 0
KEA1 131217Z 25007KT M06/M08 A3008 RMK A01 T10581078  RH  086%=      5-min Rain = 0
KEA1 131218Z 24007KT M06/M08 A3008 RMK A01 T10591079  RH  086%=      5-min Rain = 0
KEA1 131219Z 24006KT M06/M08 A3008 RMK A01 T10591079  RH  086%=      5-min Rain = 0
KEA1 131220Z 24006KT M06/M08 A3008 RMK A01 T10591078  RH  086%=      5-min Rain = 0
KEA1 131221Z 24007KT M06/M08 A3008 RMK A01 T10591078  RH  087%=      5-min Rain = 0
KEA1 131222Z 24008KT M06/M08 A3008 RMK A01 T10591078  RH  087%=      5-min Rain = 0
KEA1 131223Z 24008KT M06/M08 A3008 RMK A01 T10591078  RH  087%=      5-min Rain = 0
KEA1 131224Z 24008KT M06/M08 A3008 RMK A01 T10571077  RH  086%=      5-min Rain = 0
KEA1 131225Z 24008KT M06/M08 A3008 RMK A01 T10561076  RH  086%=      5-min Rain = 0
KEA1 131226Z 24008KT M06/M08 A3008 RMK A01 T10551076  RH  085%=      5-min Rain = 0
KEA1 131227Z 24009KT M05/M08 A3008 RMK A01 T10541075  RH  085%=      5-min Rain = 0
KEA1 131228Z 24009KT M05/M08 A3008 RMK A01 T10531075  RH  085%=      5-min Rain = 0
KEA1 131229Z 24009KT M05/M08 A3008 RMK A01 T10521075  RH  084%=      5-min Rain = 0
KEA1 131230Z 24010KT M05/M08 A3008 RMK A01 T10511075  RH  083%=      5-min Rain = 0
KEA1 131231Z 24009KT M05/M08 A3008 RMK A01 T10501075  RH  083%=      5-min Rain = 0
KEA1 131232Z 24010KT M05/M08 A3008 RMK A01 T10501076  RH  082%=      5-min Rain = 0
KEA1 131233Z 24009KT M05/M08 A3008 RMK A01 T10501076  RH  082%=      5-min Rain = 0
KEA1 131234Z 24009KT M05/M08 A3008 RMK A01 T10501076  RH  082%=      5-min Rain = 0
KEA1 131235Z 24009KT M05/M08 A3008 RMK A01 T10501077  RH  082%=      5-min Rain = 0
KEA1 131236Z 24009KT M05/M08 A3008 RMK A01 T10501077  RH  082%=      5-min Rain = 0
KEA1 131237Z 25008KT M05/M08 A3008 RMK A01 T10501077  RH  082%=      5-min Rain = 0
KEA1 131238Z 25009KT M05/M08 A3008 RMK A01 T10511077  RH  082%=      5-min Rain = 0
KEA1 131239Z 25008KT M05/M08 A3008 RMK A01 T10511078  RH  082%=      5-min Rain = 0
KEA1 131240Z 25008KT M05/M08 A3008 RMK A01 T10511078  RH  082%=      5-min Rain = 0
KEA1 131241Z 25008KT M05/M08 A3008 RMK A01 T10521078  RH  082%=      5-min Rain = 0
KEA1 131242Z 25008KT M05/M08 A3008 RMK A01 T10521078  RH  082%=      5-min Rain = 0
KEA1 131243Z 25008KT M05/M08 A3008 RMK A01 T10531079  RH  082%=      5-min Rain = 0
KEA1 131244Z 25009KT M05/M08 A3008 RMK A01 T10541080  RH  082%=      5-min Rain = 0
KEA1 131245Z 25009KT M05/M08 A3008 RMK A01 T10541081  RH  082%=      5-min Rain = 0
KEA1 131246Z 25009KT M06/M08 A3008 RMK A01 T10551082  RH  082%=      5-min Rain = 0
KEA1 131247Z 25009KT M06/M08 A3008 RMK A01 T10571082  RH  082%=      5-min Rain = 0
KEA1 131248Z 25009KT M06/M08 A3008 RMK A01 T10581083  RH  083%=      5-min Rain = 0
KEA1 131249Z 25009KT M06/M08 A3008 RMK A01 T10591084  RH  083%=      5-min Rain = 0
KEA1 131250Z 25009KT M06/M08 A3008 RMK A01 T10601084  RH  083%=      5-min Rain = 0
KEA1 131251Z 25009KT M06/M09 A3008 RMK A01 T10621085  RH  083%=      5-min Rain = 0
KEA1 131252Z 25009KT M06/M09 A3008 RMK A01 T10631086  RH  083%=      5-min Rain = 0
KEA1 131253Z 25009KT M06/M09 A3008 RMK A01 T10641088  RH  084%=      5-min Rain = 0
KEA1 131254Z 25009KT M07/M09 A3008 RMK A01 T10651088  RH  084%=      5-min Rain = 0
KEA1 131255Z 25010KT M07/M09 A3008 RMK A01 T10661088  RH  084%=      5-min Rain = 0
KEA1 131256Z 25010KT M07/M09 A3007 RMK A01 T10671089  RH  084%=      5-min Rain = 0
KEA1 131257Z 25010KT M07/M09 A3007 RMK A01 T10671089  RH  085%=      5-min Rain = 0
KEA1 131258Z 25010KT M07/M09 A3007 RMK A01 T10671089  RH  085%=      5-min Rain = 0
KEA1 131259Z 25010KT M07/M09 A3007 RMK A01 T10661087  RH  085%=      5-min Rain = 0
KEA1 131300Z 25010KT M07/M09 A3007 RMK A01 T10651086  RH  085%=      5-min Rain = 0
KEA1 131301Z 25010KT M07/M09 A3007 RMK A01 T10651087  RH  084%=      5-min Rain = 0
KEA1 131302Z 26010KT M06/M09 A3007 RMK A01 T10641087  RH  084%=      5-min Rain = 0
KEA1 131303Z 26010KT M07/M09 A3008 RMK A01 T10651088  RH  084%=      5-min Rain = 0
KEA1 131304Z 26011KT M07/M09 A3008 RMK A01 T10651088  RH  084%=      5-min Rain = 0
KEA1 131305Z 26011KT M07/M09 A3008 RMK A01 T10651088  RH  084%=      5-min Rain = 0
KEA1 131306Z 26011KT M07/M09 A3008 RMK A01 T10651088  RH  084%=      5-min Rain = 0
KEA1 131307Z 26011KT M07/M09 A3008 RMK A01 T10651089  RH  084%=      5-min Rain = 0
KEA1 131308Z 26010KT M07/M09 A3008 RMK A01 T10661090  RH  083%=      5-min Rain = 0
KEA1 131309Z 26010KT M07/M09 A3008 RMK A01 T10671090  RH  084%=      5-min Rain = 0
KEA1 131310Z 26010KT M07/M09 A3008 RMK A01 T10671090  RH  084%=      5-min Rain = 0
KEA1 131311Z 26010KT M07/M09 A3008 RMK A01 T10671090  RH  084%=      5-min Rain = 0
KEA1 131312Z 26011KT M07/M09 A3008 RMK A01 T10671090  RH  084%=      5-min Rain = 0
KEA1 131313Z 26011KT M07/M09 A3008 RMK A01 T10681091  RH  084%=      5-min Rain = 0
KEA1 131314Z 26011KT M07/M09 A3008 RMK A01 T10681090  RH  084%=      5-min Rain = 0
KEA1 131315Z 26011KT M07/M09 A3007 RMK A01 T10681090  RH  084%=      5-min Rain = 0
KEA1 131316Z 26010KT M07/M09 A3007 RMK A01 T10681090  RH  084%=      5-min Rain = 0
KEA1 131317Z 26010KT M07/M09 A3007 RMK A01 T10671089  RH  084%=      5-min Rain = 0
KEA1 131318Z 26010KT M07/M09 A3007 RMK A01 T10661089  RH  084%=      5-min Rain = 0
KEA1 131319Z 26009KT M07/M09 A3007 RMK A01 T10651087  RH  084%=      5-min Rain = 0
KEA1 131320Z 26009KT M07/M09 A3007 RMK A01 T10651087  RH  084%=      5-min Rain = 0
KEA1 131321Z 26009KT M07/M09 A3007 RMK A01 T10651087  RH  084%=      5-min Rain = 0
KEA1 131322Z 26010KT M07/M09 A3007 RMK A01 T10651087  RH  084%=      5-min Rain = 0
KEA1 131323Z 26010KT M06/M09 A3007 RMK A01 T10641086  RH  084%=      5-min Rain = 0
KEA1 131324Z 26010KT M06/M09 A3007 RMK A01 T10631085  RH  085%=      5-min Rain = 0
KEA1 131325Z 26010KT M06/M09 A3007 RMK A01 T10631085  RH  084%=      5-min Rain = 0
KEA1 131326Z 26010KT M06/M09 A3007 RMK A01 T10621085  RH  084%=      5-min Rain = 0
KEA1 131327Z 26010KT M06/M09 A3007 RMK A01 T10621085  RH  084%=      5-min Rain = 0
KEA1 131328Z 26010KT M06/M09 A3007 RMK A01 T10621085  RH  084%=      5-min Rain = 0
KEA1 131329Z 26010KT M06/M09 A3007 RMK A01 T10621085  RH  084%=      5-min Rain = 0
KEA1 131330Z 26010KT M06/M09 A3007 RMK A01 T10621085  RH  084%=      5-min Rain = 0
KEA1 131331Z 26010KT M06/M09 A3007 RMK A01 T10621085  RH  084%=      5-min Rain = 0
KEA1 131332Z 26010KT M06/M09 A3007 RMK A01 T10621085  RH  084%=      5-min Rain = 0
KEA1 131333Z 26011KT M06/M09 A3007 RMK A01 T10631086  RH  084%=      5-min Rain = 0
KEA1 131334Z 26010KT M06/M09 A3007 RMK A01 T10631086  RH  084%=      5-min Rain = 0
KEA1 131335Z 26010KT M06/M09 A3007 RMK A01 T10631085  RH  084%=      5-min Rain = 0
KEA1 131336Z 25010KT M06/M09 A3006 RMK A01 T10631085  RH  084%=      5-min Rain = 0
KEA1 131337Z 26010KT M06/M09 A3006 RMK A01 T10621085  RH  084%=      5-min Rain = 0
KEA1 131338Z 26010KT M06/M09 A3006 RMK A01 T10621085  RH  084%=      5-min Rain = 0
KEA1 131339Z 26010KT M06/M08 A3006 RMK A01 T10611084  RH  084%=      5-min Rain = 0
KEA1 131340Z 26010KT M06/M08 A3006 RMK A01 T10611084  RH  084%=      5-min Rain = 0
KEA1 131341Z 26010KT M06/M08 A3006 RMK A01 T10611084  RH  084%=      5-min Rain = 0
KEA1 131342Z 26010KT M06/M09 A3006 RMK A01 T10611085  RH  084%=      5-min Rain = 0
KEA1 131343Z 25010KT M06/M09 A3006 RMK A01 T10621085  RH  084%=      5-min Rain = 0
KEA1 131344Z 26009KT M06/M09 A3006 RMK A01 T10621085  RH  084%=      5-min Rain = 0
KEA1 131345Z 26010KT M06/M09 A3006 RMK A01 T10621085  RH  084%=      5-min Rain = 0
KEA1 131346Z 26009KT M06/M09 A3006 RMK A01 T10621085  RH  084%=      5-min Rain = 0
KEA1 131347Z 26010KT M06/M09 A3006 RMK A01 T10631086  RH  084%=      5-min Rain = 0
KEA1 131348Z 26010KT M06/M09 A3006 RMK A01 T10631086  RH  084%=      5-min Rain = 0
KEA1 131349Z 26010KT M06/M09 A3006 RMK A01 T10631086  RH  084%=      5-min Rain = 0
KEA1 131350Z 26010KT M06/M09 A3006 RMK A01 T10631086  RH  084%=      5-min Rain = 0
KEA1 131351Z 26010KT M06/M09 A3006 RMK A01 T10631086  RH  084%=      5-min Rain = 0
KEA1 131352Z 26009KT M06/M09 A3007 RMK A01 T10631086  RH  084%=      5-min Rain = 0
KEA1 131353Z 26009KT M06/M09 A3007 RMK A01 T10621085  RH  084%=      5-min Rain = 0
KEA1 131354Z 26009KT M06/M09 A3007 RMK A01 T10631086  RH  084%=      5-min Rain = 0
KEA1 131355Z 27009KT M06/M09 A3007 RMK A01 T10621086  RH  084%=      5-min Rain = 0
KEA1 131356Z 26009KT M06/M09 A3007 RMK A01 T10621085  RH  084%=      5-min Rain = 0
KEA1 131357Z 27009KT M06/M09 A3007 RMK A01 T10611085  RH  084%=      5-min Rain = 0
KEA1 131358Z 27009KT M06/M08 A3007 RMK A01 T10601084  RH  083%=      5-min Rain = 0
KEA1 131359Z 27009KT M06/M08 A3007 RMK A01 T10591084  RH  083%=      5-min Rain = 0
KEA1 131400Z 28009KT M06/M08 A3007 RMK A01 T10591084  RH  082%=      5-min Rain = 0
KEA1 131401Z 28009KT M06/M09 A3006 RMK A01 T10591085  RH  082%=      5-min Rain = 0
KEA1 131402Z 28008KT M06/M09 A3006 RMK A01 T10591085  RH  082%=      5-min Rain = 0
KEA1 131403Z 28008KT M06/M08 A3006 RMK A01 T10591084  RH  082%=      5-min Rain = 0
KEA1 131404Z 28008KT M06/M09 A3006 RMK A01 T10591085  RH  082%=      5-min Rain = 0
KEA1 131405Z 28009KT M06/M08 A3006 RMK A01 T10581084  RH  082%=      5-min Rain = 0
KEA1 131406Z 28009KT M06/M09 A3007 RMK A01 T10581085  RH  082%=      5-min Rain = 0
KEA1 131407Z 28009KT M06/M09 A3007 RMK A01 T10581085  RH  082%=      5-min Rain = 0
KEA1 131408Z 28009KT M06/M08 A3007 RMK A01 T10571084  RH  082%=      5-min Rain = 0
KEA1 131409Z 28010KT M06/M08 A3007 RMK A01 T10571084  RH  081%=      5-min Rain = 0
KEA1 131410Z 28010KT M06/M08 A3007 RMK A01 T10561083  RH  081%=      5-min Rain = 0
KEA1 131411Z 28010KT M06/M08 A3007 RMK A01 T10551084  RH  081%=      5-min Rain = 0
KEA1 131412Z 28010KT M06/M08 A3007 RMK A01 T10551083  RH  080%=      5-min Rain = 0
KEA1 131413Z 28010KT M05/M08 A3007 RMK A01 T10541083  RH  080%=      5-min Rain = 0
KEA1 131414Z 28010KT M05/M08 A3007 RMK A01 T10541083  RH  080%=      5-min Rain = 0
KEA1 131415Z 28010KT M05/M08 A3007 RMK A01 T10531083  RH  079%=      5-min Rain = 0
KEA1 131416Z 28010KT M05/M08 A3007 RMK A01 T10521082  RH  079%=      5-min Rain = 0
KEA1 131417Z 28010KT M05/M08 A3007 RMK A01 T10501082  RH  079%=      5-min Rain = 0
KEA1 131418Z 28010KT M05/M08 A3007 RMK A01 T10491081  RH  078%=      5-min Rain = 0
KEA1 131419Z 28010KT M05/M08 A3007 RMK A01 T10491081  RH  078%=      5-min Rain = 0
KEA1 131420Z 28010KT M05/M08 A3007 RMK A01 T10481080  RH  078%=      5-min Rain = 0
KEA1 131421Z 27010KT M05/M08 A3007 RMK A01 T10471080  RH  078%=      5-min Rain = 0
KEA1 131422Z 28010KT M05/M08 A3007 RMK A01 T10461080  RH  077%=      5-min Rain = 0
KEA1 131423Z 27010KT M05/M08 A3007 RMK A01 T10451080  RH  077%=      5-min Rain = 0
KEA1 131424Z 27011KT M05/M08 A3007 RMK A01 T10451080  RH  076%=      5-min Rain = 0
KEA1 131425Z 27011KT M04/M08 A3006 RMK A01 T10441080  RH  076%=      5-min Rain = 0
KEA1 131426Z 27011KT M04/M08 A3006 RMK A01 T10441080  RH  076%=      5-min Rain = 0
KEA1 131427Z 26010KT M04/M08 A3006 RMK A01 T10441080  RH  076%=      5-min Rain = 0
KEA1 131428Z 26010KT M04/M08 A3006 RMK A01 T10441080  RH  076%=      5-min Rain = 0
KEA1 131429Z 27010KT M04/M08 A3006 RMK A01 T10431078  RH  076%=      5-min Rain = 0
KEA1 131430Z 27010KT M04/M08 A3006 RMK A01 T10421078  RH  076%=      5-min Rain = 0
KEA1 131431Z 27011KT M04/M08 A3006 RMK A01 T10421078  RH  076%=      5-min Rain = 0
KEA1 131432Z 27010KT M04/M08 A3006 RMK A01 T10411077  RH  076%=      5-min Rain = 0
KEA1 131433Z 26011KT M04/M08 A3006 RMK A01 T10411077  RH  076%=      5-min Rain = 0
KEA1 131434Z 26011KT M04/M08 A3006 RMK A01 T10411077  RH  076%=      5-min Rain = 0
KEA1 131435Z 26011KT M04/M08 A3006 RMK A01 T10411077  RH  076%=      5-min Rain = 0
KEA1 131436Z 27010KT M04/M08 A3006 RMK A01 T10411076  RH  077%=      5-min Rain = 0
KEA1 131437Z 26011KT M04/M08 A3006 RMK A01 T10401075  RH  077%=      5-min Rain = 0
KEA1 131438Z 27011KT M04/M08 A3006 RMK A01 T10401075  RH  077%=      5-min Rain = 0
KEA1 131439Z 26011KT M04/M08 A3006 RMK A01 T10401075  RH  077%=      5-min Rain = 0
KEA1 131440Z 27011KT M04/M08 A3006 RMK A01 T10401075  RH  077%=      5-min Rain = 0
KEA1 131441Z 26011KT M04/M07 A3006 RMK A01 T10391074  RH  077%=      5-min Rain = 0
KEA1 131442Z 26010KT M04/M07 A3006 RMK A01 T10381072  RH  077%=      5-min Rain = 0
KEA1 131443Z 26011KT M04/M07 A3006 RMK A01 T10381072  RH  077%=      5-min Rain = 0
KEA1 131444Z 26012KT M04/M07 A3006 RMK A01 T10371071  RH  077%=      5-min Rain = 0
KEA1 131445Z 26011KT M04/M07 A3006 RMK A01 T10351070  RH  076%=      5-min Rain = 0
KEA1 131446Z 26011KT M03/M07 A3006 RMK A01 T10341070  RH  076%=      5-min Rain = 0
KEA1 131447Z 26011KT M03/M07 A3006 RMK A01 T10331070  RH  076%=      5-min Rain = 0
KEA1 131448Z 26010KT M03/M07 A3006 RMK A01 T10321070  RH  075%=      5-min Rain = 0
KEA1 131449Z 26010KT M03/M07 A3006 RMK A01 T10321070  RH  075%=      5-min Rain = 0
KEA1 131450Z 26011KT M03/M07 A3006 RMK A01 T10321069  RH  075%=      5-min Rain = 0
KEA1 131451Z 26011KT M03/M07 A3006 RMK A01 T10311069  RH  075%=      5-min Rain = 0
KEA1 131452Z 26012KT M03/M07 A3006 RMK A01 T10311069  RH  075%=      5-min Rain = 0
KEA1 131453Z 26012KT M03/M07 A3006 RMK A01 T10301069  RH  074%=      5-min Rain = 0
KEA1 131454Z 25012KT M03/M07 A3006 RMK A01 T10291069  RH  074%=      5-min Rain = 0
KEA1 131455Z 26012KT M03/M07 A3006 RMK A01 T10281067  RH  074%=      5-min Rain = 0
KEA1 131456Z 26011KT M03/M07 A3006 RMK A01 T10261065  RH  074%=      5-min Rain = 0
KEA1 131457Z 26011KT M03/M07 A3006 RMK A01 T10251066  RH  073%=      5-min Rain = 0
KEA1 131458Z 26010KT M02/M07 A3006 RMK A01 T10231065  RH  073%=      5-min Rain = 0
KEA1 131459Z 26010KT M02/M06 A3006 RMK A01 T10221064  RH  073%=      5-min Rain = 0
KEA1 131500Z 26010KT M02/M06 A3006 RMK A01 T10221063  RH  073%=      5-min Rain = 0
KEA1 131501Z 25011KT M02/M06 A3006 RMK A01 T10221063  RH  073%=      5-min Rain = 0
KEA1 131502Z 25010KT M02/M06 A3006 RMK A01 T10221064  RH  073%=      5-min Rain = 0
KEA1 131503Z 25011KT M02/M06 A3006 RMK A01 T10211062  RH  074%=      5-min Rain = 0
KEA1 131504Z 25011KT M02/M06 A3006 RMK A01 T10221062  RH  074%=      5-min Rain = 0
KEA1 131505Z 25011KT M02/M06 A3006 RMK A01 T10221062  RH  074%=      5-min Rain = 0
KEA1 131506Z 25011KT M02/M06 A3006 RMK A01 T10211062  RH  074%=      5-min Rain = 0
KEA1 131507Z 25011KT M02/M06 A3007 RMK A01 T10201062  RH  073%=      5-min Rain = 0
KEA1 131508Z 25011KT M02/M06 A3007 RMK A01 T10191061  RH  073%=      5-min Rain = 0
KEA1 131509Z 25011KT M02/M06 A3006 RMK A01 T10181061  RH  073%=      5-min Rain = 0
KEA1 131510Z 25011KT M02/M06 A3006 RMK A01 T10171060  RH  072%=      5-min Rain = 0
KEA1 131511Z 25011KT M02/M06 A3006 RMK A01 T10151059  RH  072%=      5-min Rain = 0
KEA1 131512Z 25012KT M01/M06 A3006 RMK A01 T10131058  RH  071%=      5-min Rain = 0
KEA1 131513Z 25012KT M01/M06 A3006 RMK A01 T10101057  RH  070%=      5-min Rain = 0
KEA1 131514Z 25012KT M01/M06 A3006 RMK A01 T10091057  RH  070%=      5-min Rain = 0
KEA1 131515Z 25012KT M01/M06 A3006 RMK A01 T10071058  RH  069%=      5-min Rain = 0
KEA1 131516Z 25013KT M01/M06 A3006 RMK A01 T10061058  RH  068%=      5-min Rain = 0
KEA1 131517Z 25013KT M00/M06 A3006 RMK A01 T10041056  RH  068%=      5-min Rain = 0
KEA1 131518Z 25014KT M00/M06 A3006 RMK A01 T10021055  RH  067%=      5-min Rain = 0
KEA1 131519Z 25013KT 00/06 A3006 RMK A01 T00000-56  RH  066%=      5-min Rain = 0
KEA1 131520Z 25013KT 00/M05 A3006 RMK A01 T00011054  RH  066%=      5-min Rain = 0
KEA1 131521Z 26013KT 00/M05 A3006 RMK A01 T00031054  RH  066%=      5-min Rain = 0
KEA1 131522Z 26012KT 00/M05 A3006 RMK A01 T00041054  RH  065%=      5-min Rain = 0
KEA1 131523Z 25012KT 01/M05 A3006 RMK A01 T00051052  RH  065%=      5-min Rain = 0
KEA1 131524Z 25013KT 01/M05 A3006 RMK A01 T00061052  RH  065%=      5-min Rain = 0
KEA1 131525Z 26012KT 01/M05 A3006 RMK A01 T00071051  RH  065%=      5-min Rain = 0
KEA1 131526Z 25013KT 01/M05 A3006 RMK A01 T00081052  RH  065%=      5-min Rain = 0
KEA1 131527Z 25012KT 01/M05 A3006 RMK A01 T00071052  RH  065%=      5-min Rain = 0
KEA1 131528Z 25013KT 01/M05 A3006 RMK A01 T00081050  RH  065%=      5-min Rain = 0
KEA1 131529Z 25012KT 01/M05 A3006 RMK A01 T00081049  RH  066%=      5-min Rain = 0
KEA1 131530Z 25012KT 01/M05 A3007 RMK A01 T00091048  RH  066%=      5-min Rain = 0
KEA1 131531Z 25012KT 01/M05 A3007 RMK A01 T00101048  RH  065%=      5-min Rain = 0
KEA1 131532Z 25014KT 01/M05 A3007 RMK A01 T00111047  RH  065%=      5-min Rain = 0
KEA1 131533Z 26013KT 01/M05 A3007 RMK A01 T00121047  RH  064%=      5-min Rain = 0
KEA1 131534Z 26013KT 01/M05 A3007 RMK A01 T00131048  RH  064%=      5-min Rain = 0
KEA1 131535Z 25014KT 01/M05 A3007 RMK A01 T00141047  RH  064%=      5-min Rain = 0
KEA1 131536Z 25013KT 01/M05 A3007 RMK A01 T00141048  RH  063%=      5-min Rain = 0
KEA1 131537Z 26013KT 02/M05 A3007 RMK A01 T00151048  RH  063%=      5-min Rain = 0
KEA1 131538Z 26013KT 02/M05 A3007 RMK A01 T00161048  RH  062%=      5-min Rain = 0
KEA1 131539Z 26014KT 02/M05 A3007 RMK A01 T00161048  RH  062%=      5-min Rain = 0
KEA1 131540Z 26013KT 02/M05 A3007 RMK A01 T00171050  RH  061%=      5-min Rain = 0
KEA1 131541Z 26015KT 02/M05 A3007 RMK A01 T00181050  RH  061%=      5-min Rain = 0
KEA1 131542Z 26016KT 02/M05 A3007 RMK A01 T00191051  RH  060%=      5-min Rain = 0
KEA1 131543Z 26014KT 02/M05 A3007 RMK A01 T00201052  RH  059%=      5-min Rain = 0
KEA1 131544Z 26015KT 02/M05 A3007 RMK A01 T00201052  RH  059%=      5-min Rain = 0
KEA1 131545Z 26016KT 02/M05 A3007 RMK A01 T00201053  RH  059%=      5-min Rain = 0
KEA1 131546Z 26015KT 02/M06 A3007 RMK A01 T00201055  RH  058%=      5-min Rain = 0
KEA1 131547Z 26015KT 02/M05 A3007 RMK A01 T00201053  RH  059%=      5-min Rain = 0
KEA1 131548Z 26016KT 02/M05 A3007 RMK A01 T00201053  RH  059%=      5-min Rain = 0
KEA1 131549Z 26013KT 02/M05 A3007 RMK A01 T00201053  RH  059%=      5-min Rain = 0
KEA1 131550Z 26015KT 02/M05 A3007 RMK A01 T00191053  RH  059%=      5-min Rain = 0
KEA1 131551Z 26014KT 02/M05 A3007 RMK A01 T00191053  RH  059%=      5-min Rain = 0
KEA1 131552Z 26015KT 02/M05 A3007 RMK A01 T00191053  RH  059%=      5-min Rain = 0
KEA1 131553Z 26015KT 02/M06 A3007 RMK A01 T00191055  RH  058%=      5-min Rain = 0
KEA1 131554Z 26014KT 02/M05 A3007 RMK A01 T00201052  RH  059%=      5-min Rain = 0
KEA1 131555Z 26016KT 02/M05 A3007 RMK A01 T00221051  RH  059%=      5-min Rain = 0
KEA1 131556Z 26016KT 02/M05 A3007 RMK A01 T00231053  RH  057%=      5-min Rain = 0
KEA1 131557Z 26015KT 02/M05 A3007 RMK A01 T00241051  RH  057%=      5-min Rain = 0
KEA1 131558Z 26014KT 03/M05 A3007 RMK A01 T00251048  RH  058%=      5-min Rain = 0
KEA1 131559Z 26014KT 03/M05 A3007 RMK A01 T00261047  RH  059%=      5-min Rain = 0
KEA1 131600Z 26014KT 03/M05 A3007 RMK A01 T00251046  RH  059%=      5-min Rain = 0
KEA1 131601Z 26013KT 03/M05 A3007 RMK A01 T00251045  RH  060%=      5-min Rain = 0
KEA1 131602Z 26013KT 03/M04 A3007 RMK A01 T00261042  RH  061%=      5-min Rain = 0
KEA1 131603Z 26015KT 03/M05 A3007 RMK A01 T00261045  RH  060%=      5-min Rain = 0
KEA1 131604Z 26014KT 02/M05 A3007 RMK A01 T00241049  RH  059%=      5-min Rain = 0
KEA1 131605Z 26013KT 02/M05 A3007 RMK A01 T00221047  RH  060%=      5-min Rain = 0
KEA1 131606Z 26013KT 02/M05 A3007 RMK A01 T00221045  RH  061%=      5-min Rain = 0
KEA1 131607Z 26015KT 02/M05 A3007 RMK A01 T00221046  RH  061%=      5-min Rain = 0
KEA1 131608Z 26015KT 02/M05 A3007 RMK A01 T00211047  RH  061%=      5-min Rain = 0
KEA1 131609Z 25014KT 02/M05 A3007 RMK A01 T00201047  RH  061%=      5-min Rain = 0
KEA1 131610Z 26015KT 02/M05 A3007 RMK A01 T00201048  RH  061%=      5-min Rain = 0
KEA1 131611Z 26014KT 02/M05 A3007 RMK A01 T00201047  RH  061%=      5-min Rain = 0
KEA1 131612Z 26014KT 02/M05 A3007 RMK A01 T00201047  RH  061%=      5-min Rain = 0
KEA1 131613Z 26015KT 02/M05 A3006 RMK A01 T00201048  RH  061%=      5-min Rain = 0
KEA1 131614Z 26015KT 02/M05 A3006 RMK A01 T00191049  RH  060%=      5-min Rain = 0
KEA1 131615Z 25017KT 02/M05 A3006 RMK A01 T00201051  RH  059%=      5-min Rain = 0
KEA1 131616Z 25015KT 02/M05 A3006 RMK A01 T00221052  RH  058%=      5-min Rain = 0
KEA1 131617Z 25016KT 02/M05 A3006 RMK A01 T00221053  RH  058%=      5-min Rain = 0
KEA1 131618Z 25015KT 02/M05 A3006 RMK A01 T00231054  RH  057%=      5-min Rain = 0
KEA1 131619Z 25016KT 02/M05 A3006 RMK A01 T00241053  RH  057%=      5-min Rain = 0
KEA1 131620Z 26015KT 02/M06 A3006 RMK A01 T00241055  RH  056%=      5-min Rain = 0
KEA1 131621Z 26015KT 03/M05 A3006 RMK A01 T00251052  RH  057%=      5-min Rain = 0
KEA1 131622Z 26015KT 03/M05 A3006 RMK A01 T00251051  RH  057%=      5-min Rain = 0
KEA1 131623Z 25014KT 03/M05 A3006 RMK A01 T00261050  RH  057%=      5-min Rain = 0
KEA1 131624Z 25015KT 03/M05 A3006 RMK A01 T00271048  RH  057%=      5-min Rain = 0
KEA1 131625Z 25013KT 03/M05 A3006 RMK A01 T00291047  RH  057%=      5-min Rain = 0
KEA1 131626Z 25014KT 03/M05 A3006 RMK A01 T00311045  RH  058%=      5-min Rain = 0
KEA1 131627Z 25015KT 03/M05 A3006 RMK A01 T00321047  RH  056%=      5-min Rain = 0
KEA1 131628Z 25015KT 03/M05 A3006 RMK A01 T00331049  RH  055%=      5-min Rain = 0
KEA1 131629Z 25016KT 03/M05 A3006 RMK A01 T00341048  RH  055%=      5-min Rain = 0
KEA1 131630Z 25015KT 04/M05 A3006 RMK A01 T00361050  RH  054%=      5-min Rain = 0
KEA1 131631Z 25017KT 04/M05 A3006 RMK A01 T00371052  RH  052%=      5-min Rain = 0
KEA1 131632Z 26018KT 04/M06 A3006 RMK A01 T00371055  RH  051%=      5-min Rain = 0
KEA1 131633Z 25017KT 04/M06 A3006 RMK A01 T00371055  RH  051%=      5-min Rain = 0
KEA1 131634Z 26016G21KT 04/M06 A3006 RMK A01 T00371055  RH  051%=      5-min Rain = 0
KEA1 131635Z 26016KT 04/M06 A3006 RMK A01 T00381056  RH  050%=      5-min Rain = 0
KEA1 131636Z 25019KT 04/M06 A3006 RMK A01 T00381056  RH  050%=      5-min Rain = 0
KEA1 131637Z 26017KT 04/M06 A3007 RMK A01 T00381057  RH  050%=      5-min Rain = 0
KEA1 131638Z 26018KT 04/M06 A3007 RMK A01 T00381056  RH  050%=      5-min Rain = 0
KEA1 131639Z 26015KT 04/M06 A3007 RMK A01 T00381057  RH  050%=      5-min Rain = 0
KEA1 131640Z 25017KT 04/M06 A3007 RMK A01 T00391055  RH  051%=      5-min Rain = 0
KEA1 131641Z 25014KT 04/M06 A3007 RMK A01 T00391055  RH  050%=      5-min Rain = 0
KEA1 131642Z 25013KT 04/M05 A3007 RMK A01 T00391052  RH  051%=      5-min Rain = 0
KEA1 131643Z 25015KT 04/M05 A3006 RMK A01 T00391051  RH  052%=      5-min Rain = 0
KEA1 131644Z 25015KT 04/M05 A3006 RMK A01 T00391051  RH  052%=      5-min Rain = 0
KEA1 131645Z 25016KT 04/M05 A3006 RMK A01 T00401052  RH  051%=      5-min Rain = 0
KEA1 131646Z 25016KT 04/M05 A3006 RMK A01 T00411054  RH  050%=      5-min Rain = 0
KEA1 131647Z 25014KT 04/M05 A3006 RMK A01 T00421051  RH  051%=      5-min Rain = 0
KEA1 131648Z 25015KT 05/M05 A3006 RMK A01 T00451048  RH  051%=      5-min Rain = 0
KEA1 131649Z 26019KT 05/M05 A3006 RMK A01 T00461053  RH  049%=      5-min Rain = 0
KEA1 131650Z 25019KT 05/M06 A3006 RMK A01 T00451056  RH  048%=      5-min Rain = 0
KEA1 131651Z 25016KT 05/M06 A3006 RMK A01 T00451056  RH  048%=      5-min Rain = 0
KEA1 131652Z 26016KT 05/M05 A3006 RMK A01 T00451052  RH  049%=      5-min Rain = 0
KEA1 131653Z 25017KT 05/M05 A3006 RMK A01 T00471053  RH  048%=      5-min Rain = 0
KEA1 131654Z 25016KT 05/M05 A3006 RMK A01 T00471054  RH  048%=      5-min Rain = 0
KEA1 131655Z 26017KT 05/M06 A3006 RMK A01 T00481055  RH  047%=      5-min Rain = 0
KEA1 131656Z 25018KT 05/M06 A3006 RMK A01 T00481056  RH  047%=      5-min Rain = 0
KEA1 131657Z 25019KT 05/M06 A3006 RMK A01 T00491055  RH  047%=      5-min Rain = 0
KEA1 131658Z 26016KT 05/M06 A3006 RMK A01 T00491055  RH  047%=      5-min Rain = 0
KEA1 131659Z 26015KT 05/M05 A3006 RMK A01 T00511051  RH  048%=      5-min Rain = 0
KEA1 131700Z 25016KT 05/M05 A3006 RMK A01 T00521050  RH  048%=      5-min Rain = 0
KEA1 131701Z 25014KT 05/M05 A3006 RMK A01 T00531052  RH  047%=      5-min Rain = 0
KEA1 131702Z 26019KT 05/M05 A3006 RMK A01 T00541053  RH  046%=      5-min Rain = 0
KEA1 131703Z 26019KT 05/M06 A3006 RMK A01 T00531057  RH  045%=      5-min Rain = 0
KEA1 131704Z 25018KT 05/M06 A3006 RMK A01 T00531057  RH  045%=      5-min Rain = 0
KEA1 131705Z 26017KT 05/M06 A3006 RMK A01 T00531057  RH  045%=      5-min Rain = 0
KEA1 131706Z 25017KT 05/M05 A3006 RMK A01 T00541054  RH  046%=      5-min Rain = 0
KEA1 131707Z 26018G23KT 06/M06 A3006 RMK A01 T00551055  RH  045%=      5-min Rain = 0
KEA1 131708Z 26019KT 06/M06 A3006 RMK A01 T00551058  RH  044%=      5-min Rain = 0
KEA1 131709Z 26020KT 06/M06 A3006 RMK A01 T00551058  RH  044%=      5-min Rain = 0
KEA1 131710Z 25018KT 06/M06 A3006 RMK A01 T00551056  RH  045%=      5-min Rain = 0
KEA1 131711Z 25019KT 06/M05 A3005 RMK A01 T00561054  RH  045%=      5-min Rain = 0
KEA1 131712Z 26018KT 06/M05 A3005 RMK A01 T00561053  RH  045%=      5-min Rain = 0
KEA1 131713Z 26020KT 06/M05 A3005 RMK A01 T00571053  RH  045%=      5-min Rain = 0
KEA1 131714Z 26018KT 06/M05 A3005 RMK A01 T00571053  RH  045%=      5-min Rain = 0
KEA1 131715Z 26020KT 06/M05 A3005 RMK A01 T00591051  RH  045%=      5-min Rain = 0
KEA1 131716Z 26019KT 06/M05 A3005 RMK A01 T00591053  RH  044%=      5-min Rain = 0
KEA1 131717Z 25019KT 06/M05 A3005 RMK A01 T00591054  RH  044%=      5-min Rain = 0
KEA1 131718Z 25019KT 06/M05 A3005 RMK A01 T00581053  RH  045%=      5-min Rain = 0
KEA1 131719Z 25019KT 06/M05 A3005 RMK A01 T00581053  RH  045%=      5-min Rain = 0
KEA1 131720Z 25020KT 06/M05 A3005 RMK A01 T00571052  RH  045%=      5-min Rain = 0
KEA1 131721Z 25017KT 06/M05 A3005 RMK A01 T00581053  RH  045%=      5-min Rain = 0
KEA1 131722Z 25018KT 06/M05 A3005 RMK A01 T00581050  RH  046%=      5-min Rain = 0
KEA1 131723Z 26018KT 06/M05 A3004 RMK A01 T00591048  RH  046%=      5-min Rain = 0
KEA1 131724Z 25018KT 06/M05 A3004 RMK A01 T00601048  RH  046%=      5-min Rain = 0
KEA1 131725Z 25017KT 06/M05 A3004 RMK A01 T00601049  RH  046%=      5-min Rain = 0
KEA1 131726Z 26018KT 06/M05 A3004 RMK A01 T00611046  RH  046%=      5-min Rain = 0
KEA1 131727Z 26017G22KT 06/M05 A3004 RMK A01 T00621047  RH  046%=      5-min Rain = 0
KEA1 131728Z 26018KT 06/M05 A3004 RMK A01 T00641049  RH  044%=      5-min Rain = 0
KEA1 131729Z 26019KT 06/M05 A3004 RMK A01 T00631051  RH  044%=      5-min Rain = 0
KEA1 131730Z 26019KT 06/M05 A3004 RMK A01 T00631050  RH  044%=      5-min Rain = 0
KEA1 131731Z 27018KT 06/M05 A3004 RMK A01 T00631052  RH  043%=      5-min Rain = 0
KEA1 131732Z 27016KT 06/M05 A3004 RMK A01 T00631052  RH  044%=      5-min Rain = 0
KEA1 131733Z 27016G21KT 07/M05 A3004 RMK A01 T00661046  RH  045%=      5-min Rain = 0
KEA1 131734Z 27018KT 07/M05 A3004 RMK A01 T00671048  RH  044%=      5-min Rain = 0
KEA1 131735Z 26019KT 07/M05 A3004 RMK A01 T00671049  RH  043%=      5-min Rain = 0
KEA1 131736Z 26017KT 07/M05 A3004 RMK A01 T00661048  RH  044%=      5-min Rain = 0
KEA1 131737Z 26019KT 07/M05 A3004 RMK A01 T00671045  RH  045%=      5-min Rain = 0
KEA1 131738Z 26020KT 07/M05 A3004 RMK A01 T00671050  RH  043%=      5-min Rain = 0
KEA1 131739Z 26018KT 07/M05 A3003 RMK A01 T00661051  RH  043%=      5-min Rain = 0
KEA1 131740Z 26017KT 07/M05 A3003 RMK A01 T00661049  RH  044%=      5-min Rain = 0
KEA1 131741Z 27019KT 07/M05 A3003 RMK A01 T00661049  RH  044%=      5-min Rain = 0
KEA1 131742Z 27019KT 07/M05 A3003 RMK A01 T00661050  RH  043%=      5-min Rain = 0
KEA1 131743Z 27017KT 07/M05 A3003 RMK A01 T00671051  RH  043%=      5-min Rain = 0
KEA1 131744Z 26018KT 07/M05 A3003 RMK A01 T00681049  RH  043%=      5-min Rain = 0
KEA1 131745Z 26017KT 07/M05 A3003 RMK A01 T00691051  RH  042%=      5-min Rain = 0
KEA1 131746Z 26020KT 07/M05 A3003 RMK A01 T00691048  RH  043%=      5-min Rain = 0
KEA1 131747Z 27018KT 07/M05 A3003 RMK A01 T00701049  RH  043%=      5-min Rain = 0
KEA1 131748Z 26017KT 07/M05 A3003 RMK A01 T00721046  RH  043%=      5-min Rain = 0
KEA1 131749Z 26019KT 07/M05 A3003 RMK A01 T00731047  RH  042%=      5-min Rain = 0
KEA1 131750Z 26018KT 07/M05 A3003 RMK A01 T00731045  RH  043%=      5-min Rain = 0
KEA1 131751Z 26017KT 07/M04 A3003 RMK A01 T00731042  RH  044%=      5-min Rain = 0
KEA1 131752Z 26017KT 07/M04 A3003 RMK A01 T00741040  RH  044%=      5-min Rain = 0
KEA1 131753Z 26015KT 07/M04 A3003 RMK A01 T00741040  RH  044%=      5-min Rain = 0
KEA1 131754Z 26015KT 08/M03 A3002 RMK A01 T00761034  RH  046%=      5-min Rain = 0
KEA1 131755Z 25016KT 08/M04 A3002 RMK A01 T00781038  RH  044%=      5-min Rain = 0
KEA1 131756Z 26015KT 08/M04 A3002 RMK A01 T00771037  RH  044%=      5-min Rain = 0
KEA1 131757Z 26016KT 08/M04 A3002 RMK A01 T00771038  RH  044%=      5-min Rain = 0
KEA1 131758Z 26016KT 08/M04 A3002 RMK A01 T00771035  RH  045%=      5-min Rain = 0
KEA1 131759Z 26016KT 08/M04 A3002 RMK A01 T00771038  RH  044%=      5-min Rain = 0
KEA1 131800Z 25014KT 08/M04 A3002 RMK A01 T00761038  RH  044%=      5-min Rain = 0
KEA1 131801Z 26015KT 08/M04 A3002 RMK A01 T00761036  RH  045%=      5-min Rain = 0
KEA1 131802Z 27015KT 08/M04 A3002 RMK A01 T00761039  RH  044%=      5-min Rain = 0
KEA1 131803Z 27016KT 08/M04 A3002 RMK A01 T00781037  RH  044%=      5-min Rain = 0
KEA1 131804Z 27014KT 08/M04 A3002 RMK A01 T00801037  RH  044%=      5-min Rain = 0
KEA1 131805Z 27015KT 08/M03 A3002 RMK A01 T00821033  RH  044%=      5-min Rain = 0
KEA1 131806Z 26016KT 08/M04 A3002 RMK A01 T00831037  RH  043%=      5-min Rain = 0
KEA1 131807Z 26017KT 08/M04 A3002 RMK A01 T00831040  RH  042%=      5-min Rain = 0
KEA1 131808Z 27014KT 08/M04 A3002 RMK A01 T00811038  RH  043%=      5-min Rain = 0
KEA1 131809Z 27015KT 08/M03 A3002 RMK A01 T00831034  RH  043%=      5-min Rain = 0
KEA1 131810Z 28013KT 09/M03 A3002 RMK A01 T00861031  RH  044%=      5-min Rain = 0
KEA1 131811Z 26014KT 09/M03 A3002 RMK A01 T00871032  RH  043%=      5-min Rain = 0
KEA1 131812Z 28012G18KT 09/M03 A3002 RMK A01 T00881028  RH  044%=      5-min Rain = 0
KEA1 131813Z 28015KT 09/M04 A3001 RMK A01 T00901035  RH  041%=      5-min Rain = 0
KEA1 131814Z 28014KT 09/M04 A3001 RMK A01 T00881038  RH  041%=      5-min Rain = 0
KEA1 131815Z 27015KT 09/M03 A3001 RMK A01 T00881034  RH  042%=      5-min Rain = 0
KEA1 131816Z 27013KT 09/M03 A3001 RMK A01 T00881034  RH  042%=      5-min Rain = 0
KEA1 131817Z 28016KT 09/M04 A3001 RMK A01 T00881035  RH  042%=      5-min Rain = 0
KEA1 131818Z 27017KT 09/M04 A3001 RMK A01 T00881039  RH  040%=      5-min Rain = 0
KEA1 131819Z 27019KT 09/M04 A3001 RMK A01 T00871041  RH  040%=      5-min Rain = 0
KEA1 131820Z 27019KT 09/M04 A3001 RMK A01 T00861043  RH  040%=      5-min Rain = 0
KEA1 131821Z 27017KT 09/M05 A3001 RMK A01 T00851045  RH  039%=      5-min Rain = 0
KEA1 131822Z 26015KT 09/M04 A3001 RMK A01 T00851039  RH  041%=      5-min Rain = 0
KEA1 131823Z 27014KT 09/M04 A3001 RMK A01 T00871037  RH  041%=      5-min Rain = 0
KEA1 131824Z 27016KT 09/M04 A3001 RMK A01 T00881037  RH  041%=      5-min Rain = 0
KEA1 131825Z 26019KT 09/M04 A3001 RMK A01 T00901038  RH  040%=      5-min Rain = 0
KEA1 131826Z 26017KT 09/M04 A3001 RMK A01 T00881039  RH  040%=      5-min Rain = 0
KEA1 131827Z 27017KT 09/M04 A3001 RMK A01 T00881040  RH  040%=      5-min Rain = 0
KEA1 131828Z 27018KT 09/M04 A30 RMK A01 T00881041  RH  040%=      5-min Rain = 0
KEA1 131829Z 27016KT 09/M04 A3001 RMK A01 T00881042  RH  040%=      5-min Rain = 0
KEA1 131830Z 26017KT 09/M04 A30 RMK A01 T00891038  RH  041%=      5-min Rain = 0
KEA1 131831Z 26019KT 09/M04 A30 RMK A01 T00911037  RH  040%=      5-min Rain = 0
KEA1 131832Z 27019KT 09/M04 A30 RMK A01 T00901041  RH  039%=      5-min Rain = 0
KEA1 131833Z 27019KT 09/M04 A30 RMK A01 T00891041  RH  040%=      5-min Rain = 0
KEA1 131834Z 27018KT 09/M04 A30 RMK A01 T00901040  RH  040%=      5-min Rain = 0
KEA1 131835Z 27019KT 09/M04 A30 RMK A01 T00911040  RH  039%=      5-min Rain = 0
KEA1 131836Z 27018KT 09/M04 A30 RMK A01 T00911040  RH  039%=      5-min Rain = 0
KEA1 131837Z 27017KT 09/M04 A30 RMK A01 T00921038  RH  040%=      5-min Rain = 0
KEA1 131838Z 27016KT 09/M04 A30 RMK A01 T00941036  RH  040%=      5-min Rain = 0
KEA1 131839Z 27015KT 09/M04 A30 RMK A01 T00941035  RH  040%=      5-min Rain = 0
KEA1 131840Z 27015KT 10/M03 A30 RMK A01 T00951032  RH  041%=      5-min Rain = 0
KEA1 131841Z 26016KT 10/M03 A2999 RMK A01 T00951030  RH  041%=      5-min Rain = 0
KEA1 131842Z 27015KT 10/M03 A2999 RMK A01 T00951031  RH  041%=      5-min Rain = 0
KEA1 131843Z 26016KT 10/M03 A2999 RMK A01 T00951029  RH  041%=      5-min Rain = 0
KEA1 131844Z 26017KT 10/M03 A2999 RMK A01 T00961031  RH  041%=      5-min Rain = 0
KEA1 131845Z 26017KT 10/M04 A2999 RMK A01 T00961036  RH  039%=      5-min Rain = 0
KEA1 131846Z 26014KT 10/M03 A2999 RMK A01 T00971032  RH  040%=      5-min Rain = 0
KEA1 131847Z 27014KT 10/M03 A2999 RMK A01 T00991025  RH  042%=      5-min Rain = 0
KEA1 131848Z 26016KT 10/M03 A2999 RMK A01 T01021027  RH  040%=      5-min Rain = 0
KEA1 131849Z 26016KT 10/M03 A2999 RMK A01 T01001030  RH  040%=      5-min Rain = 0
KEA1 131850Z 26015KT 10/M03 A2999 RMK A01 T00991031  RH  040%=      5-min Rain = 0
KEA1 131851Z 26014KT 10/M03 A2999 RMK A01 T00991030  RH  040%=      5-min Rain = 0
KEA1 131852Z 26012KT 10/M03 A2999 RMK A01 T01011025  RH  041%=      5-min Rain = 0
KEA1 131853Z 26012KT 11/M02 A2999 RMK A01 T01071018  RH  042%=      5-min Rain = 0
KEA1 131854Z 25017KT 11/M02 A2999 RMK A01 T01091021  RH  040%=      5-min Rain = 0
KEA1 131855Z 26017KT 11/M03 A2998 RMK A01 T01051026  RH  040%=      5-min Rain = 0
KEA1 131856Z 25016KT 10/M03 A2999 RMK A01 T01031029  RH  039%=      5-min Rain = 0
KEA1 131857Z 26014KT 10/M03 A2998 RMK A01 T01031027  RH  040%=      5-min Rain = 0
KEA1 131858Z 26015KT 11/M03 A2998 RMK A01 T01051025  RH  040%=      5-min Rain = 0
KEA1 131859Z 26014KT 11/M03 A2998 RMK A01 T01061029  RH  039%=      5-min Rain = 0
KEA1 131900Z 26016KT 11/M03 A2998 RMK A01 T01071026  RH  039%=      5-min Rain = 0
KEA1 131901Z 25014KT 11/M03 A2998 RMK A01 T01061027  RH  039%=      5-min Rain = 0
KEA1 131902Z 25016KT 11/M02 A2998 RMK A01 T01071021  RH  041%=      5-min Rain = 0
KEA1 131903Z 26016KT 11/M03 A2998 RMK A01 T01061026  RH  039%=      5-min Rain = 0
KEA1 131904Z 27017KT 11/M03 A2998 RMK A01 T01061030  RH  038%=      5-min Rain = 0
KEA1 131905Z 27014KT 11/M03 A2997 RMK A01 T01071032  RH  038%=      5-min Rain = 0
KEA1 131906Z 26015KT 11/M03 A2997 RMK A01 T01091027  RH  039%=      5-min Rain = 0
KEA1 131907Z 27016KT 11/M03 A2997 RMK A01 T01101029  RH  038%=      5-min Rain = 0
KEA1 131908Z 26012KT 11/M03 A2997 RMK A01 T01101027  RH  038%=      5-min Rain = 0
KEA1 131909Z 25015KT 11/M02 A2997 RMK A01 T01121020  RH  040%=      5-min Rain = 0
KEA1 131910Z 25015KT 11/M02 A2997 RMK A01 T01111024  RH  039%=      5-min Rain = 0
KEA1 131911Z 26016KT 11/M03 A2997 RMK A01 T01081026  RH  039%=      5-min Rain = 0
KEA1 131912Z 25015KT 11/M02 A2997 RMK A01 T01091024  RH  039%=      5-min Rain = 0
KEA1 131913Z 25016KT 11/M02 A2997 RMK A01 T01091023  RH  040%=      5-min Rain = 0
KEA1 131914Z 25017KT 11/M03 A2997 RMK A01 T01091026  RH  039%=      5-min Rain = 0
KEA1 131915Z 25016KT 11/M03 A2997 RMK A01 T01081028  RH  039%=      5-min Rain = 0
KEA1 131916Z 25015KT 11/M03 A2997 RMK A01 T01071028  RH  039%=      5-min Rain = 0
KEA1 131917Z 25014KT 11/M02 A2997 RMK A01 T01091021  RH  040%=      5-min Rain = 0
KEA1 131918Z 25015KT 11/M02 A2997 RMK A01 T01111022  RH  039%=      5-min Rain = 0
KEA1 131919Z 25017KT 11/M03 A2997 RMK A01 T01121026  RH  038%=      5-min Rain = 0
KEA1 131920Z 25016KT 11/M03 A2997 RMK A01 T01111030  RH  037%=      5-min Rain = 0
KEA1 131921Z 26014KT 11/M03 A2997 RMK A01 T01121025  RH  038%=      5-min Rain = 0
KEA1 131922Z 26016KT 12/M02 A2997 RMK A01 T01161024  RH  038%=      5-min Rain = 0
KEA1 131923Z 27014KT 12/M03 A2997 RMK A01 T01171026  RH  037%=      5-min Rain = 0
KEA1 131924Z 26014KT 12/M02 A2997 RMK A01 T01191023  RH  037%=      5-min Rain = 0
KEA1 131925Z 26016KT 12/M03 A2997 RMK A01 T01191029  RH  036%=      5-min Rain = 0
KEA1 131926Z 25013KT 12/M03 A2996 RMK A01 T01161030  RH  036%=      5-min Rain = 0
KEA1 131927Z 25015KT 12/M03 A2996 RMK A01 T01151028  RH  037%=      5-min Rain = 0
KEA1 131928Z 25015KT 12/M03 A2996 RMK A01 T01151029  RH  036%=      5-min Rain = 0
KEA1 131929Z 25015KT 11/M02 A2996 RMK A01 T01141024  RH  038%=      5-min Rain = 0
KEA1 131930Z 26015KT 12/M03 A2996 RMK A01 T01151025  RH  037%=      5-min Rain = 0
KEA1 131931Z 26012KT 12/M02 A2996 RMK A01 T01171021  RH  038%=      5-min Rain = 0
KEA1 131932Z 25015KT 12/M02 A2995 RMK A01 T01211023  RH  037%=      5-min Rain = 0
KEA1 131933Z 25016KT 12/M03 A2995 RMK A01 T01201028  RH  035%=      5-min Rain = 0
KEA1 131934Z 25017KT 12/M03 A2995 RMK A01 T01161033  RH  035%=      5-min Rain = 0
KEA1 131935Z 25016KT 12/M03 A2995 RMK A01 T01151030  RH  036%=      5-min Rain = 0
KEA1 131936Z 26018KT 12/M03 A2995 RMK A01 T01161030  RH  036%=      5-min Rain = 0
KEA1 131937Z 25016KT 12/M03 A2995 RMK A01 T01161027  RH  037%=      5-min Rain = 0
KEA1 131938Z 25016KT 12/M03 A2995 RMK A01 T01171028  RH  036%=      5-min Rain = 0
KEA1 131939Z 25015KT 12/M03 A2995 RMK A01 T01171027  RH  036%=      5-min Rain = 0
KEA1 131940Z 25014KT 12/M03 A2995 RMK A01 T01181025  RH  037%=      5-min Rain = 0
KEA1 131941Z 26013KT 12/M02 A2995 RMK A01 T01191021  RH  038%=      5-min Rain = 0
KEA1 131942Z 26017KT 12/M03 A2995 RMK A01 T01221025  RH  036%=      5-min Rain = 0
KEA1 131943Z 25016KT 12/M03 A2995 RMK A01 T01211028  RH  035%=      5-min Rain = 0
KEA1 131944Z 25015KT 12/M03 A2995 RMK A01 T01201025  RH  036%=      5-min Rain = 0
KEA1 131945Z 25014KT 12/M02 A2995 RMK A01 T01201020  RH  038%=      5-min Rain = 0
KEA1 131946Z 25014KT 12/M02 A2995 RMK A01 T01211018  RH  038%=      5-min Rain = 0
KEA1 131947Z 25012KT 12/M02 A2995 RMK A01 T01221016  RH  038%=      5-min Rain = 0
KEA1 131948Z 25012KT 13/M01 A2995 RMK A01 T01251013  RH  038%=      5-min Rain = 0
KEA1 131949Z 26015KT 13/M02 A2995 RMK A01 T01261019  RH  036%=      5-min Rain = 0
KEA1 131950Z 26014KT 13/M03 A2995 RMK A01 T01251025  RH  035%=      5-min Rain = 0
KEA1 131951Z 27016KT 12/M03 A2995 RMK A01 T01241031  RH  034%=      5-min Rain = 0
KEA1 131952Z 26012KT 13/M03 A2995 RMK A01 T01251025  RH  035%=      5-min Rain = 0
KEA1 131953Z 25015KT 13/M02 A2995 RMK A01 T01281020  RH  036%=      5-min Rain = 0
KEA1 131954Z 25016KT 13/M02 A2994 RMK A01 T01271021  RH  036%=      5-min Rain = 0
KEA1 131955Z 25016KT 13/M02 A2994 RMK A01 T01251024  RH  035%=      5-min Rain = 0
KEA1 131956Z 25016KT 12/M02 A2994 RMK A01 T01241024  RH  036%=      5-min Rain = 0
KEA1 131957Z 25014KT 12/M02 A2994 RMK A01 T01241020  RH  037%=      5-min Rain = 0
KEA1 131958Z 25012KT 13/M02 A2994 RMK A01 T01271018  RH  037%=      5-min Rain = 0
KEA1 131959Z 25014KT 13/M02 A2994 RMK A01 T01291016  RH  036%=      5-min Rain = 0
KEA1 132000Z 25016KT 13/M02 A2994 RMK A01 T01301017  RH  036%=      5-min Rain = 0
KEA1 132001Z 25015KT 13/M02 A2994 RMK A01 T01301018  RH  036%=      5-min Rain = 0
KEA1 132002Z 25016KT 13/M02 A2994 RMK A01 T01301024  RH  034%=      5-min Rain = 0
KEA1 132003Z 26014KT 13/M02 A2994 RMK A01 T01311020  RH  035%=      5-min Rain = 0
KEA1 132004Z 26013KT 13/M03 A2994 RMK A01 T01321025  RH  033%=      5-min Rain = 0
KEA1 132005Z 25017KT 13/M03 A2994 RMK A01 T01331026  RH  033%=      5-min Rain = 0
KEA1 132006Z 25015KT 13/M03 A2994 RMK A01 T01321026  RH  033%=      5-min Rain = 0
KEA1 132007Z 25017KT 13/M03 A2994 RMK A01 T01321025  RH  034%=      5-min Rain = 0
KEA1 132008Z 25017KT 13/M03 A2994 RMK A01 T01311029  RH  033%=      5-min Rain = 0
KEA1 132009Z 26017KT 13/M03 A2994 RMK A01 T01311029  RH  033%=      5-min Rain = 0
KEA1 132010Z 26015KT 13/M03 A2994 RMK A01 T01311030  RH  032%=      5-min Rain = 0
KEA1 132011Z 26015KT 13/M03 A2994 RMK A01 T01321031  RH  032%=      5-min Rain = 0
KEA1 132012Z 26014KT 13/M02 A2994 RMK A01 T01331023  RH  034%=      5-min Rain = 0
KEA1 132013Z 27017KT 14/M03 A2994 RMK A01 T01361028  RH  032%=      5-min Rain = 0
KEA1 132014Z 25014KT 14/M03 A2993 RMK A01 T01351029  RH  032%=      5-min Rain = 0
KEA1 132015Z 26015KT 14/M03 A2993 RMK A01 T01371028  RH  032%=      5-min Rain = 0
KEA1 132016Z 26016KT 14/M03 A2993 RMK A01 T01361030  RH  032%=      5-min Rain = 0
KEA1 132017Z 27014KT 14/M03 A2993 RMK A01 T01361031  RH  031%=      5-min Rain = 0
KEA1 132018Z 27015KT 14/M03 A2993 RMK A01 T01381029  RH  031%=      5-min Rain = 0
KEA1 132019Z 26016KT 14/M03 A2993 RMK A01 T01391027  RH  032%=      5-min Rain = 0
KEA1 132020Z 25016KT 14/M02 A2993 RMK A01 T01391024  RH  032%=      5-min Rain = 0
KEA1 132021Z 25016KT 14/M03 A2993 RMK A01 T01381027  RH  032%=      5-min Rain = 0
KEA1 132022Z 25015KT 14/M03 A2993 RMK A01 T01371032  RH  031%=      5-min Rain = 0
KEA1 132023Z 25015KT 14/M03 A2993 RMK A01 T01361028  RH  032%=      5-min Rain = 0
KEA1 132024Z 26013KT 14/M03 A2993 RMK A01 T01371026  RH  032%=      5-min Rain = 0
KEA1 132025Z 26015KT 14/M02 A2993 RMK A01 T01401023  RH  032%=      5-min Rain = 0
KEA1 132026Z 26017KT 14/M03 A2993 RMK A01 T01411032  RH  030%=      5-min Rain = 0
KEA1 132027Z 26014KT 14/M03 A2993 RMK A01 T01401028  RH  031%=      5-min Rain = 0
KEA1 132028Z 26013KT 14/M02 A2993 RMK A01 T01401021  RH  033%=      5-min Rain = 0
KEA1 132029Z 26013KT 14/M02 A2993 RMK A01 T01421020  RH  033%=      5-min Rain = 0
KEA1 132030Z 26014KT 14/M02 A2993 RMK A01 T01431021  RH  032%=      5-min Rain = 0
KEA1 132031Z 27015KT 14/M02 A2993 RMK A01 T01441024  RH  031%=      5-min Rain = 0
KEA1 132032Z 27015KT 14/M02 A2993 RMK A01 T01431024  RH  031%=      5-min Rain = 0
KEA1 132033Z 27014KT 14/M02 A2993 RMK A01 T01441023  RH  032%=      5-min Rain = 0
KEA1 132034Z 27014KT 14/M03 A2993 RMK A01 T01431026  RH  031%=      5-min Rain = 0
KEA1 132035Z 27015KT 14/M03 A2993 RMK A01 T01431025  RH  031%=      5-min Rain = 0
KEA1 132036Z 26015KT 14/M03 A2993 RMK A01 T01421027  RH  031%=      5-min Rain = 0
KEA1 132037Z 26014KT 14/M03 A2993 RMK A01 T01421027  RH  031%=      5-min Rain = 0
KEA1 132038Z 26014KT 14/M02 A2992 RMK A01 T01431024  RH  031%=      5-min Rain = 0
KEA1 132039Z 27014KT 14/M03 A2993 RMK A01 T01441026  RH  031%=      5-min Rain = 0
KEA1 132040Z 27014KT 15/M03 A2993 RMK A01 T01451027  RH  030%=      5-min Rain = 0
KEA1 132041Z 27015KT 15/M02 A2993 RMK A01 T01461023  RH  031%=      5-min Rain = 0
KEA1 132042Z 27014KT 15/M03 A2993 RMK A01 T01471025  RH  030%=      5-min Rain = 0
KEA1 132043Z 27015KT 15/M03 A2993 RMK A01 T01481029  RH  029%=      5-min Rain = 0
KEA1 132044Z 26013KT 15/M03 A2992 RMK A01 T01481027  RH  030%=      5-min Rain = 0
KEA1 132045Z 27015KT 15/M03 A2992 RMK A01 T01481028  RH  029%=      5-min Rain = 0
KEA1 132046Z 27013KT 15/M03 A2992 RMK A01 T01481028  RH  030%=      5-min Rain = 0
KEA1 132047Z 27012KT 15/M03 A2992 RMK A01 T01491025  RH  030%=      5-min Rain = 0
KEA1 132048Z 26014KT 15/M02 A2992 RMK A01 T01501022  RH  030%=      5-min Rain = 0
KEA1 132049Z 26013KT 15/M02 A2992 RMK A01 T01501023  RH  030%=      5-min Rain = 0
KEA1 132050Z 26011KT 15/M02 A2992 RMK A01 T01511015  RH  032%=      5-min Rain = 0
KEA1 132051Z 26015KT 15/M02 A2992 RMK A01 T01531022  RH  030%=      5-min Rain = 0
KEA1 132052Z 26014KT 15/M03 A2992 RMK A01 T01521026  RH  029%=      5-min Rain = 0
KEA1 132053Z 27016KT 15/M03 A2992 RMK A01 T01511027  RH  029%=      5-min Rain = 0
KEA1 132054Z 26016KT 15/M03 A2992 RMK A01 T01511026  RH  029%=      5-min Rain = 0
KEA1 132055Z 26015KT 15/M03 A2992 RMK A01 T01511026  RH  029%=      5-min Rain = 0
KEA1 132056Z 27013KT 15/M02 A2992 RMK A01 T01521023  RH  030%=      5-min Rain = 0
KEA1 132057Z 28014KT 15/M02 A2992 RMK A01 T01541022  RH  030%=      5-min Rain = 0
KEA1 132058Z 28014KT 16/M03 A2992 RMK A01 T01561026  RH  029%=      5-min Rain = 0
KEA1 132059Z 27014KT 16/M03 A2992 RMK A01 T01561026  RH  029%=      5-min Rain = 0
KEA1 132100Z 27014KT 16/M03 A2992 RMK A01 T01561028  RH  028%=      5-min Rain = 0
KEA1 132101Z 27014KT 16/M03 A2992 RMK A01 T01561027  RH  028%=      5-min Rain = 0
KEA1 132102Z 27015KT 16/M03 A2992 RMK A01 T01561029  RH  028%=      5-min Rain = 0
KEA1 132103Z 28012KT 16/M03 A2992 RMK A01 T01561025  RH  029%=      5-min Rain = 0
KEA1 132104Z 27011KT 16/M02 A2992 RMK A01 T01571024  RH  029%=      5-min Rain = 0
KEA1 132105Z 26013KT 16/M02 A2992 RMK A01 T01581022  RH  029%=      5-min Rain = 0
KEA1 132106Z 27012KT 16/M03 A2992 RMK A01 T01581025  RH  028%=      5-min Rain = 0
KEA1 132107Z 27013KT 16/M02 A2992 RMK A01 T01571024  RH  029%=      5-min Rain = 0
KEA1 132108Z 27012KT 16/M02 A2992 RMK A01 T01561022  RH  029%=      5-min Rain = 0
KEA1 132109Z 27013KT 16/M02 A2992 RMK A01 T01561023  RH  029%=      5-min Rain = 0
KEA1 132110Z 27013KT 16/M02 A2992 RMK A01 T01571023  RH  029%=      5-min Rain = 0
KEA1 132111Z 28012G17KT 16/M02 A2992 RMK A01 T01571022  RH  029%=      5-min Rain = 0
KEA1 132112Z 27015KT 16/M03 A2992 RMK A01 T01581026  RH  028%=      5-min Rain = 0
KEA1 132113Z 27015KT 16/M03 A2992 RMK A01 T01581033  RH  027%=      5-min Rain = 0
KEA1 132114Z 27015KT 16/M03 A2992 RMK A01 T01571032  RH  027%=      5-min Rain = 0
KEA1 132115Z 27013KT 16/M03 A2992 RMK A01 T01571028  RH  028%=      5-min Rain = 0
KEA1 132116Z 27012KT 16/M03 A2992 RMK A01 T01581027  RH  028%=      5-min Rain = 0
KEA1 132117Z 27015KT 16/M03 A2992 RMK A01 T01591030  RH  027%=      5-min Rain = 0
KEA1 132118Z 27013KT 16/M03 A2992 RMK A01 T01591030  RH  027%=      5-min Rain = 0
KEA1 132119Z 27015KT 16/M03 A2992 RMK A01 T01601030  RH  027%=      5-min Rain = 0
KEA1 132120Z 28014KT 16/M03 A2992 RMK A01 T01601032  RH  027%=      5-min Rain = 0
KEA1 132121Z 28014KT 16/M03 A2992 RMK A01 T01581029  RH  028%=      5-min Rain = 0
KEA1 132122Z 27013KT 16/M03 A2992 RMK A01 T01571029  RH  028%=      5-min Rain = 0
KEA1 132123Z 27014KT 16/M03 A2992 RMK A01 T01571029  RH  028%=      5-min Rain = 0
KEA1 132124Z 27015KT 16/M03 A2992 RMK A01 T01571031  RH  027%=      5-min Rain = 0
KEA1 132125Z 27015KT 16/M03 A2992 RMK A01 T01571029  RH  028%=      5-min Rain = 0
KEA1 132126Z 27015KT 16/M02 A2992 RMK A01 T01581024  RH  029%=      5-min Rain = 0
KEA1 132127Z 27013KT 16/M02 A2991 RMK A01 T01581024  RH  029%=      5-min Rain = 0
KEA1 132128Z 27011KT 16/M02 A2991 RMK A01 T01591017  RH  030%=      5-min Rain = 0
KEA1 132129Z 28013KT 16/M02 A2991 RMK A01 T01611019  RH  029%=      5-min Rain = 0
KEA1 132130Z 27013KT 16/M02 A2991 RMK A01 T01611023  RH  028%=      5-min Rain = 0
KEA1 132131Z 28013KT 16/M02 A2991 RMK A01 T01601020  RH  029%=      5-min Rain = 0
KEA1 132132Z 27011KT 16/M02 A2991 RMK A01 T01611022  RH  029%=      5-min Rain = 0
KEA1 132133Z 28013KT 16/M02 A2991 RMK A01 T01611019  RH  029%=      5-min Rain = 0
KEA1 132134Z 28013KT 16/M02 A2991 RMK A01 T01621024  RH  028%=      5-min Rain = 0
KEA1 132135Z 28013KT 16/M03 A2991 RMK A01 T01601027  RH  028%=      5-min Rain = 0
KEA1 132136Z 28012KT 16/M03 A2991 RMK A01 T01601026  RH  028%=      5-min Rain = 0
KEA1 132137Z 27013KT 16/M03 A2991 RMK A01 T01601029  RH  027%=      5-min Rain = 0
KEA1 132138Z 27012KT 16/M03 A2991 RMK A01 T01601028  RH  027%=      5-min Rain = 0
KEA1 132139Z 27013KT 16/M03 A2991 RMK A01 T01601026  RH  028%=      5-min Rain = 0
KEA1 132140Z 27012KT 16/M03 A2991 RMK A01 T01601027  RH  028%=      5-min Rain = 0
KEA1 132141Z 27011KT 16/M02 A2991 RMK A01 T01601024  RH  028%=      5-min Rain = 0
KEA1 132142Z 28013KT 16/M03 A2991 RMK A01 T01621027  RH  027%=      5-min Rain = 0
KEA1 132143Z 27013KT 16/M03 A2991 RMK A01 T01621028  RH  027%=      5-min Rain = 0
KEA1 132144Z 27013KT 16/M03 A2991 RMK A01 T01611027  RH  027%=      5-min Rain = 0
KEA1 132145Z 28011KT 16/M02 A2991 RMK A01 T01611024  RH  028%=      5-min Rain = 0
KEA1 132146Z 27010KT 16/M02 A2991 RMK A01 T01621020  RH  029%=      5-min Rain = 0
KEA1 132147Z 27010KT 16/M02 A2991 RMK A01 T01641017  RH  029%=      5-min Rain = 0
KEA1 132148Z 27013KT 17/M02 A2991 RMK A01 T01651022  RH  028%=      5-min Rain = 0
KEA1 132149Z 27012KT 16/M03 A2991 RMK A01 T01641027  RH  027%=      5-min Rain = 0
KEA1 132150Z 28013KT 16/M03 A2991 RMK A01 T01631025  RH  027%=      5-min Rain = 0
KEA1 132151Z 28012KT 16/M02 A2991 RMK A01 T01631024  RH  028%=      5-min Rain = 0
KEA1 132152Z 27012KT 16/M02 A2991 RMK A01 T01631024  RH  028%=      5-min Rain = 0
KEA1 132153Z 27009KT 16/M02 A2991 RMK A01 T01621020  RH  029%=      5-min Rain = 0
KEA1 132154Z 28010KT 16/M02 A2991 RMK A01 T01641021  RH  028%=      5-min Rain = 0
KEA1 132155Z 27011KT 16/M02 A2991 RMK A01 T01641023  RH  028%=      5-min Rain = 0
KEA1 132156Z 27012KT 16/M03 A2991 RMK A01 T01641025  RH  027%=      5-min Rain = 0
KEA1 132157Z 27013KT 16/M02 A2991 RMK A01 T01641024  RH  027%=      5-min Rain = 0
KEA1 132158Z 27010KT 16/M02 A2991 RMK A01 T01641023  RH  028%=      5-min Rain = 0
KEA1 132159Z 27013KT 16/M02 A2991 RMK A01 T01641024  RH  028%=      5-min Rain = 0
KEA1 132200Z 27013KT 16/M03 A2991 RMK A01 T01641026  RH  027%=      5-min Rain = 0
KEA1 132201Z 28013KT 16/M03 A2991 RMK A01 T01631028  RH  027%=      5-min Rain = 0
KEA1 132202Z 28011KT 16/M03 A2991 RMK A01 T01641026  RH  027%=      5-min Rain = 0
KEA1 132203Z 27012KT 17/M02 A2991 RMK A01 T01651023  RH  028%=      5-min Rain = 0
KEA1 132204Z 28012KT 17/M03 A2991 RMK A01 T01661028  RH  026%=      5-min Rain = 0
KEA1 132205Z 27011KT 17/M03 A2991 RMK A01 T01651029  RH  026%=      5-min Rain = 0
KEA1 132206Z 28013KT 17/M03 A2991 RMK A01 T01651027  RH  027%=      5-min Rain = 0
KEA1 132207Z 27012KT 17/M03 A299 RMK A01 T01651032  RH  026%=      5-min Rain = 0
KEA1 132208Z 27011KT 17/M03 A299 RMK A01 T01661029  RH  026%=      5-min Rain = 0
KEA1 132209Z 28011KT 17/M03 A2991 RMK A01 T01671029  RH  026%=      5-min Rain = 0
KEA1 132210Z 27012KT 17/M03 A299 RMK A01 T01671031  RH  026%=      5-min Rain = 0
KEA1 132211Z 28013KT 17/M03 A2991 RMK A01 T01651032  RH  026%=      5-min Rain = 0
KEA1 132212Z 27012KT 16/M03 A299 RMK A01 T01641034  RH  026%=      5-min Rain = 0
KEA1 132213Z 27012KT 16/M03 A299 RMK A01 T01641034  RH  025%=      5-min Rain = 0
KEA1 132214Z 27010KT 16/M03 A299 RMK A01 T01631032  RH  026%=      5-min Rain = 0
KEA1 132215Z 27012KT 16/M03 A299 RMK A01 T01631028  RH  027%=      5-min Rain = 0
KEA1 132216Z 27011KT 16/M03 A299 RMK A01 T01641030  RH  026%=      5-min Rain = 0
KEA1 132217Z 26009KT 16/M03 A299 RMK A01 T01641028  RH  027%=      5-min Rain = 0
KEA1 132218Z 26010KT 16/M02 A299 RMK A01 T01641022  RH  028%=      5-min Rain = 0
KEA1 132219Z 26010KT 17/M02 A299 RMK A01 T01651024  RH  027%=      5-min Rain = 0
KEA1 132220Z 27010KT 17/M03 A299 RMK A01 T01651025  RH  027%=      5-min Rain = 0
KEA1 132221Z 27009KT 17/M03 A299 RMK A01 T01651027  RH  027%=      5-min Rain = 0
KEA1 132222Z 27008KT 17/M02 A299 RMK A01 T01651021  RH  028%=      5-min Rain = 0
KEA1 132223Z 27011KT 17/M02 A299 RMK A01 T01651022  RH  028%=      5-min Rain = 0
KEA1 132224Z 27011KT 17/M03 A299 RMK A01 T01651026  RH  027%=      5-min Rain = 0
KEA1 132225Z 27011KT 16/M03 A299 RMK A01 T01641028  RH  027%=      5-min Rain = 0
KEA1 132226Z 27008KT 16/M03 A299 RMK A01 T01641026  RH  027%=      5-min Rain = 0
KEA1 132227Z 27010KT 16/M02 A299 RMK A01 T01641022  RH  028%=      5-min Rain = 0
KEA1 132228Z 27010KT 17/M02 A299 RMK A01 T01651021  RH  028%=      5-min Rain = 0
KEA1 132229Z 27010KT 17/M02 A299 RMK A01 T01661023  RH  027%=      5-min Rain = 0
KEA1 132230Z 27010KT 17/M02 A299 RMK A01 T01661023  RH  027%=      5-min Rain = 0
KEA1 132231Z 28010KT 17/M02 A299 RMK A01 T01651024  RH  027%=      5-min Rain = 0
KEA1 132232Z 27011KT 16/M03 A299 RMK A01 T01631026  RH  027%=      5-min Rain = 0
KEA1 132233Z 27009KT 16/M03 A299 RMK A01 T01621027  RH  027%=      5-min Rain = 0
KEA1 132234Z 27010KT 16/M02 A299 RMK A01 T01601024  RH  028%=      5-min Rain = 0
KEA1 132235Z 27010KT 16/M02 A299 RMK A01 T01601022  RH  029%=      5-min Rain = 0
KEA1 132236Z 27010KT 16/M02 A299 RMK A01 T01601024  RH  028%=      5-min Rain = 0
KEA1 132237Z 27010KT 16/M02 A299 RMK A01 T01601024  RH  028%=      5-min Rain = 0
KEA1 132238Z 27010KT 16/M03 A2989 RMK A01 T01601025  RH  028%=      5-min Rain = 0
KEA1 132239Z 27009KT 16/M02 A2989 RMK A01 T01601024  RH  028%=      5-min Rain = 0
KEA1 132240Z 27010KT 16/M03 A2989 RMK A01 T01611025  RH  028%=      5-min Rain = 0
KEA1 132241Z 27009KT 16/M03 A2989 RMK A01 T01601025  RH  028%=      5-min Rain = 0
KEA1 132242Z 27009KT 16/M02 A2989 RMK A01 T01611023  RH  028%=      5-min Rain = 0
KEA1 132243Z 27010KT 16/M03 A2989 RMK A01 T01601027  RH  028%=      5-min Rain = 0
KEA1 132244Z 27009KT 16/M03 A2989 RMK A01 T01591026  RH  028%=      5-min Rain = 0
KEA1 132245Z 27009KT 16/M03 A2989 RMK A01 T01591026  RH  028%=      5-min Rain = 0
KEA1 132246Z 27008KT 16/M03 A2989 RMK A01 T01591025  RH  028%=      5-min Rain = 0
KEA1 132247Z 27008KT 16/M03 A2989 RMK A01 T01591025  RH  028%=      5-min Rain = 0
KEA1 132248Z 27009KT 16/M02 A2989 RMK A01 T01591022  RH  029%=      5-min Rain = 0
KEA1 132249Z 27008KT 16/M02 A2989 RMK A01 T01591022  RH  029%=      5-min Rain = 0
KEA1 132250Z 27007KT 16/M02 A2989 RMK A01 T01591021  RH  029%=      5-min Rain = 0
KEA1 132251Z 27007KT 16/M02 A2989 RMK A01 T01591018  RH  030%=      5-min Rain = 0
KEA1 132252Z 27008KT 16/M02 A2989 RMK A01 T01591020  RH  029%=      5-min Rain = 0
KEA1 132253Z 27008KT 16/M02 A2989 RMK A01 T01591020  RH  029%=      5-min Rain = 0
KEA1 132254Z 27008KT 16/M02 A2989 RMK A01 T01591018  RH  030%=      5-min Rain = 0
KEA1 132255Z 26008KT 16/M02 A2989 RMK A01 T01591018  RH  030%=      5-min Rain = 0
KEA1 132256Z 26008KT 16/M02 A2989 RMK A01 T01591016  RH  030%=      5-min Rain = 0
KEA1 132257Z 26008KT 16/M01 A2989 RMK A01 T01591012  RH  031%=      5-min Rain = 0
KEA1 132258Z 26007KT 16/M01 A2989 RMK A01 T01601010  RH  031%=      5-min Rain = 0
KEA1 132259Z 26007KT 16/M01 A2989 RMK A01 T01601010  RH  031%=      5-min Rain = 0
KEA1 132300Z 26007KT 16/M01 A2989 RMK A01 T01601011  RH  031%=      5-min Rain = 0
KEA1 132301Z 26006KT 16/M01 A2989 RMK A01 T01601008  RH  032%=      5-min Rain = 0
KEA1 132302Z 26007KT 16/M01 A2989 RMK A01 T01601008  RH  032%=      5-min Rain = 0
KEA1 132303Z 26007KT 16/M01 A2989 RMK A01 T01611008  RH  032%=      5-min Rain = 0
KEA1 132304Z 26007KT 16/M01 A2989 RMK A01 T01611010  RH  031%=      5-min Rain = 0
KEA1 132305Z 26008KT 16/M01 A2989 RMK A01 T01611013  RH  030%=      5-min Rain = 0
KEA1 132306Z 26007KT 16/M01 A2989 RMK A01 T01611012  RH  031%=      5-min Rain = 0
KEA1 132307Z 26008KT 16/M01 A2989 RMK A01 T01601011  RH  031%=      5-min Rain = 0
KEA1 132308Z 26008KT 16/M01 A2989 RMK A01 T01611011  RH  031%=      5-min Rain = 0
KEA1 132309Z 26008KT 16/M01 A2989 RMK A01 T01601008  RH  032%=      5-min Rain = 0
KEA1 132310Z 26009KT 16/M01 A2989 RMK A01 T01601010  RH  031%=      5-min Rain = 0
KEA1 132311Z 26008KT 16/M01 A2989 RMK A01 T01591010  RH  031%=      5-min Rain = 0
KEA1 132312Z 25008KT 16/M01 A2989 RMK A01 T01591006  RH  032%=      5-min Rain = 0
KEA1 132313Z 25008KT 16/M01 A2989 RMK A01 T01591006  RH  032%=      5-min Rain = 0
KEA1 132314Z 25008KT 16/M01 A2989 RMK A01 T01581007  RH  032%=      5-min Rain = 0
KEA1 132315Z 25008KT 16/M01 A2989 RMK A01 T01581007  RH  032%=      5-min Rain = 0
KEA1 132316Z 25007KT 16/M01 A2989 RMK A01 T01581006  RH  033%=      5-min Rain = 0
KEA1 132317Z 25008KT 16/M01 A2989 RMK A01 T01581006  RH  033%=      5-min Rain = 0
KEA1 132318Z 25009KT 16/M01 A2989 RMK A01 T01571006  RH  033%=      5-min Rain = 0
KEA1 132319Z 25009KT 16/M01 A299 RMK A01 T01571005  RH  033%=      5-min Rain = 0
KEA1 132320Z 25008KT 16/M00 A299 RMK A01 T01561004  RH  033%=      5-min Rain = 0
KEA1 132321Z 25008KT 16/M00 A299 RMK A01 T01551003  RH  034%=      5-min Rain = 0
KEA1 132322Z 26009KT 15/M00 A299 RMK A01 T01541001  RH  035%=      5-min Rain = 0
KEA1 132323Z 26009KT 15/M00 A299 RMK A01 T01531004  RH  034%=      5-min Rain = 0
KEA1 132324Z 26009KT 15/M00 A299 RMK A01 T01531002  RH  035%=      5-min Rain = 0
KEA1 132325Z 26009KT 15/M00 A299 RMK A01 T01521003  RH  035%=      5-min Rain = 0
KEA1 132326Z 26008KT 15/M00 A299 RMK A01 T01511002  RH  035%=      5-min Rain = 0
KEA1 132327Z 26009KT 15/M00 A299 RMK A01 T01501004  RH  035%=      5-min Rain = 0
KEA1 132328Z 26008KT 15/M00 A299 RMK A01 T01501003  RH  035%=      5-min Rain = 0
KEA1 132329Z 26008KT 15/M00 A299 RMK A01 T01491002  RH  036%=      5-min Rain = 0
KEA1 132330Z 26007KT 15/M00 A299 RMK A01 T01481002  RH  036%=      5-min Rain = 0
KEA1 132331Z 26007KT 15/M00 A299 RMK A01 T01471003  RH  036%=      5-min Rain = 0
KEA1 132332Z 26008KT 15/M00 A299 RMK A01 T01471003  RH  036%=      5-min Rain = 0
KEA1 132333Z 26008KT 15/M01 A299 RMK A01 T01461005  RH  035%=      5-min Rain = 0
KEA1 132334Z 26008KT 15/M01 A299 RMK A01 T01461006  RH  035%=      5-min Rain = 0
KEA1 132335Z 26008KT 15/M01 A299 RMK A01 T01451007  RH  035%=      5-min Rain = 0
KEA1 132336Z 26008KT 14/M01 A299 RMK A01 T01441007  RH  035%=      5-min Rain = 0
KEA1 132337Z 26007KT 14/M01 A299 RMK A01 T01431008  RH  035%=      5-min Rain = 0
KEA1 132338Z 26007KT 14/M01 A299 RMK A01 T01421008  RH  036%=      5-min Rain = 0
KEA1 132339Z 26008KT 14/M01 A299 RMK A01 T01411006  RH  036%=      5-min Rain = 0
KEA1 132340Z 26008KT 14/M01 A299 RMK A01 T01391005  RH  037%=      5-min Rain = 0
KEA1 132341Z 26007KT 14/M01 A299 RMK A01 T01371005  RH  038%=      5-min Rain = 0
KEA1 132342Z 26007KT 14/M01 A299 RMK A01 T01361005  RH  038%=      5-min Rain = 0
KEA1 132343Z 26007KT 14/M00 A299 RMK A01 T01351004  RH  038%=      5-min Rain = 0
KEA1 132344Z 26007KT 13/M00 A299 RMK A01 T01341004  RH  039%=      5-min Rain = 0
KEA1 132345Z 26007KT 13/M00 A299 RMK A01 T01321004  RH  039%=      5-min Rain = 0
KEA1 132346Z 26007KT 13/M00 A2991 RMK A01 T01311003  RH  040%=      5-min Rain = 0
KEA1 132347Z 26007KT 13/M00 A2991 RMK A01 T01291003  RH  040%=      5-min Rain = 0
KEA1 132348Z 26008KT 13/M00 A2991 RMK A01 T01281002  RH  041%=      5-min Rain = 0
KEA1 132349Z 26008KT 13/M00 A2991 RMK A01 T01271002  RH  041%=      5-min Rain = 0
KEA1 132350Z 26008KT 13/M00 A2991 RMK A01 T01261003  RH  041%=      5-min Rain = 0
KEA1 132351Z 26008KT 13/M00 A2991 RMK A01 T01261003  RH  041%=      5-min Rain = 0
KEA1 132352Z 26008KT 13/M01 A2991 RMK A01 T01261005  RH  041%=      5-min Rain = 0
KEA1 132353Z 26008KT 13/M01 A2991 RMK A01 T01251006  RH  040%=      5-min Rain = 0
KEA1 132354Z 26009KT 13/M01 A2991 RMK A01 T01251006  RH  040%=      5-min Rain = 0
KEA1 132355Z 26009KT 12/M01 A2991 RMK A01 T01241006  RH  041%=      5-min Rain = 0
KEA1 132356Z 26009KT 12/M01 A2991 RMK A01 T01221007  RH  041%=      5-min Rain = 0
KEA1 132357Z 26009KT 12/M01 A2991 RMK A01 T01201007  RH  042%=      5-min Rain = 0
KEA1 132358Z 26009KT 12/M01 A2991 RMK A01 T01171007  RH  042%=      5-min Rain = 0
KEA1 132359Z 26009KT 12/M01 A2991 RMK A01 T01151007  RH  043%=      5-min Rain = 0
KEA1 140000Z 26009KT 11/M01 A2991 RMK A01 T01131007  RH  043%=      5-min Rain = 0
KEA1 140001Z 26009KT 11/M01 A2991 RMK A01 T01121006  RH  044%=      5-min Rain = 0
KEA1 140002Z 26008KT 11/M01 A2991 RMK A01 T01101005  RH  045%=      5-min Rain = 0
KEA1 140003Z 26008KT 11/M01 A2991 RMK A01 T01091005  RH  045%=      5-min Rain = 0
KEA1 140004Z 26008KT 11/M01 A2991 RMK A01 T01081005  RH  046%=      5-min Rain = 0
KEA1 140005Z 26008KT 11/M01 A2991 RMK A01 T01071005  RH  046%=      5-min Rain = 0
KEA1 140006Z 26009KT 11/M00 A2991 RMK A01 T01061004  RH  046%=      5-min Rain = 0
KEA1 140007Z 26009KT 11/M00 A2991 RMK A01 T01061003  RH  047%=      5-min Rain = 0
KEA1 140008Z 25008KT 11/M00 A2991 RMK A01 T01061004  RH  047%=      5-min Rain = 0
KEA1 140009Z 26007KT 11/M00 A2991 RMK A01 T01051004  RH  047%=      5-min Rain = 0
KEA1 140010Z 26008KT 11/M00 A2991 RMK A01 T01051004  RH  047%=      5-min Rain = 0
KEA1 140011Z 26008KT 11/M01 A2991 RMK A01 T01051005  RH  046%=      5-min Rain = 0
KEA1 140012Z 26008KT 10/M01 A2991 RMK A01 T01041006  RH  046%=      5-min Rain = 0
KEA1 140013Z 26008KT 11/M01 A2991 RMK A01 T01051006  RH  046%=      5-min Rain = 0
KEA1 140014Z 27008KT 11/M01 A2991 RMK A01 T01051006  RH  046%=      5-min Rain = 0
KEA1 140015Z 27008KT 11/M01 A2991 RMK A01 T01051006  RH  046%=      5-min Rain = 0
KEA1 140016Z 27008KT 11/M01 A2991 RMK A01 T01061006  RH  046%=      5-min Rain = 0
KEA1 140017Z 27008KT 11/M01 A2991 RMK A01 T01061007  RH  045%=      5-min Rain = 0
KEA1 140018Z 26007KT 11/M01 A2991 RMK A01 T01061007  RH  045%=      5-min Rain = 0
KEA1 140019Z 26008KT 11/M01 A2991 RMK A01 T01061007  RH  045%=      5-min Rain = 0
KEA1 140020Z 26008KT 11/M01 A2991 RMK A01 T01061008  RH  045%=      5-min Rain = 0
KEA1 140021Z 25007KT 10/M01 A2991 RMK A01 T01031008  RH  046%=      5-min Rain = 0
KEA1 140022Z 25007KT 10/M01 A2991 RMK A01 T01021008  RH  046%=      5-min Rain = 0
KEA1 140023Z 24007KT 10/M01 A2991 RMK A01 T01031007  RH  046%=      5-min Rain = 0
KEA1 140024Z 24007KT 10/M01 A2991 RMK A01 T01031007  RH  046%=      5-min Rain = 0
KEA1 140025Z 24006KT 10/M01 A2991 RMK A01 T01021006  RH  047%=      5-min Rain = 0
KEA1 140026Z 24006KT 10/M01 A2991 RMK A01 T01021005  RH  047%=      5-min Rain = 0
KEA1 140027Z 23006KT 10/M01 A299 RMK A01 T01021006  RH  047%=      5-min Rain = 0
KEA1 140028Z 23007KT 10/M01 A299 RMK A01 T01031008  RH  046%=      5-min Rain = 0
KEA1 140029Z 23007KT 11/M01 A299 RMK A01 T01061009  RH  045%=      5-min Rain = 0
KEA1 140030Z 23007KT 11/M01 A299 RMK A01 T01101010  RH  043%=      5-min Rain = 0
KEA1 140031Z 22006KT 11/M01 A299 RMK A01 T01121011  RH  042%=      5-min Rain = 0
KEA1 140032Z 22006KT 11/M01 A299 RMK A01 T01121012  RH  042%=      5-min Rain = 0
KEA1 140033Z 22005KT 11/M01 A299 RMK A01 T01101014  RH  042%=      5-min Rain = 0
KEA1 140034Z 22005KT 11/M02 A299 RMK A01 T01081015  RH  042%=      5-min Rain = 0
KEA1 140035Z 22004KT 11/M02 A299 RMK A01 T01061015  RH  043%=      5-min Rain = 0
KEA1 140036Z 21005KT 10/M02 A299 RMK A01 T01031017  RH  043%=      5-min Rain = 0
KEA1 140037Z 22005KT 10/M02 A299 RMK A01 T00991017  RH  044%=      5-min Rain = 0
KEA1 140038Z 22006KT 09/M02 A299 RMK A01 T00911018  RH  046%=      5-min Rain = 0
KEA1 140039Z 22005KT 09/M02 A299 RMK A01 T00861018  RH  048%=      5-min Rain = 0
KEA1 140040Z 22006KT 08/M02 A299 RMK A01 T00841017  RH  049%=      5-min Rain = 0
KEA1 140041Z 22006KT 08/M02 A299 RMK A01 T00841017  RH  049%=      5-min Rain = 0
KEA1 140042Z 23006KT 09/M02 A299 RMK A01 T00851016  RH  049%=      5-min Rain = 0
KEA1 140043Z 23006KT 08/M02 A299 RMK A01 T00831018  RH  049%=      5-min Rain = 0
KEA1 140044Z 22006KT 08/M02 A299 RMK A01 T00801018  RH  050%=      5-min Rain = 0
KEA1 140045Z 23006KT 08/M02 A299 RMK A01 T00801017  RH  050%=      5-min Rain = 0
KEA1 140046Z 23006KT 08/M02 A299 RMK A01 T00831016  RH  050%=      5-min Rain = 0
KEA1 140047Z 23007KT 09/M02 A299 RMK A01 T00851016  RH  049%=      5-min Rain = 0
KEA1 140048Z 23006KT 09/M02 A299 RMK A01 T00871015  RH  049%=      5-min Rain = 0
KEA1 140049Z 22007KT 09/M01 A299 RMK A01 T00911013  RH  048%=      5-min Rain = 0
KEA1 140050Z 22006KT 10/M01 A299 RMK A01 T00951012  RH  047%=      5-min Rain = 0
KEA1 140051Z 22006KT 10/M01 A299 RMK A01 T00961013  RH  047%=      5-min Rain = 0
KEA1 140052Z 22006KT 10/M01 A299 RMK A01 T00961014  RH  046%=      5-min Rain = 0
KEA1 140053Z 22007KT 10/M02 A299 RMK A01 T00961017  RH  045%=      5-min Rain = 0
KEA1 140054Z 23006KT 10/M02 A299 RMK A01 T01001018  RH  044%=      5-min Rain = 0
KEA1 140055Z 22007KT 10/M02 A299 RMK A01 T01021020  RH  043%=      5-min Rain = 0
KEA1 140056Z 22006KT 10/M02 A299 RMK A01 T01031020  RH  042%=      5-min Rain = 0
KEA1 140057Z 21007KT 10/M02 A299 RMK A01 T01031021  RH  042%=      5-min Rain = 0
KEA1 140058Z 20009KT 10/M02 A299 RMK A01 T00971022  RH  043%=      5-min Rain = 0
KEA1 140059Z 20009KT 09/M02 A299 RMK A01 T00911021  RH  045%=      5-min Rain = 0
KEA1 140100Z 20010KT 09/M02 A299 RMK A01 T00871018  RH  048%=      5-min Rain = 0
KEA1 140101Z 21009KT 08/M02 A299 RMK A01 T00841016  RH  049%=      5-min Rain = 0
KEA1 140102Z 21009KT 08/M02 A299 RMK A01 T00821016  RH  050%=      5-min Rain = 0
KEA1 140103Z 21009KT 08/M02 A299 RMK A01 T00811016  RH  050%=      5-min Rain = 0
KEA1 140104Z 22008KT 08/M02 A299 RMK A01 T00831017  RH  049%=      5-min Rain = 0
KEA1 140105Z 22008KT 09/M02 A299 RMK A01 T00861017  RH  049%=      5-min Rain = 0
KEA1 140106Z 23008KT 09/M02 A299 RMK A01 T00881018  RH  047%=      5-min Rain = 0
KEA1 140107Z 22008KT 10/M02 A299 RMK A01 T00951018  RH  045%=      5-min Rain = 0
KEA1 140108Z 22008KT 10/M02 A299 RMK A01 T01001020  RH  043%=      5-min Rain = 0
KEA1 140109Z 22008KT 11/M02 A299 RMK A01 T01061019  RH  042%=      5-min Rain = 0
KEA1 140110Z 20009KT 11/M02 A299 RMK A01 T01051022  RH  041%=      5-min Rain = 0
KEA1 140111Z 21010KT 10/M02 A299 RMK A01 T01021023  RH  041%=      5-min Rain = 0
KEA1 140112Z 21010KT 10/M02 A299 RMK A01 T01011023  RH  042%=      5-min Rain = 0
KEA1 140113Z 22009KT 10/M02 A299 RMK A01 T01021022  RH  042%=      5-min Rain = 0
KEA1 140114Z 22008KT 10/M02 A299 RMK A01 T01031022  RH  042%=      5-min Rain = 0
KEA1 140115Z 23008KT 10/M02 A299 RMK A01 T01041023  RH  041%=      5-min Rain = 0
KEA1 140116Z 22008KT 11/M02 A299 RMK A01 T01101023  RH  040%=      5-min Rain = 0
KEA1 140117Z 23010KT 11/M02 A299 RMK A01 T01131022  RH  039%=      5-min Rain = 0
KEA1 140118Z 23012KT 11/M02 A299 RMK A01 T01141022  RH  039%=      5-min Rain = 0
KEA1 140119Z 23011KT 12/M02 A299 RMK A01 T01161021  RH  038%=      5-min Rain = 0
KEA1 140120Z 22009KT 12/M02 A299 RMK A01 T01181021  RH  038%=      5-min Rain = 0
KEA1 140121Z 22009KT 12/M02 A299 RMK A01 T01191022  RH  037%=      5-min Rain = 0
KEA1 140122Z 22009KT 12/M02 A299 RMK A01 T01191022  RH  037%=      5-min Rain = 0
KEA1 140123Z 23010KT 12/M02 A299 RMK A01 T01181023  RH  037%=      5-min Rain = 0
KEA1 140124Z 23013KT 12/M02 A299 RMK A01 T01201024  RH  037%=      5-min Rain = 0
KEA1 140125Z 23013KT 12/M03 A299 RMK A01 T01211025  RH  036%=      5-min Rain = 0
KEA1 140126Z 23012KT 12/M03 A299 RMK A01 T01221025  RH  036%=      5-min Rain = 0
KEA1 140127Z 23013KT 12/M03 A299 RMK A01 T01211025  RH  036%=      5-min Rain = 0
KEA1 140128Z 22013KT 12/M03 A299 RMK A01 T01221026  RH  036%=      5-min Rain = 0
KEA1 140129Z 22011KT 12/M03 A299 RMK A01 T01221026  RH  036%=      5-min Rain = 0
KEA1 140130Z 22009G14KT 12/M03 A299 RMK A01 T01211026  RH  036%=      5-min Rain = 0
KEA1 140131Z 22009KT 12/M03 A299 RMK A01 T01201027  RH  036%=      5-min Rain = 0
KEA1 140132Z 22009KT 12/M03 A299 RMK A01 T01191026  RH  036%=      5-min Rain = 0
KEA1 140133Z 22009KT 12/M03 A299 RMK A01 T01161027  RH  037%=      5-min Rain = 0
KEA1 140134Z 22009KT 11/M03 A299 RMK A01 T01141027  RH  037%=      5-min Rain = 0
KEA1 140135Z 23010KT 11/M03 A299 RMK A01 T01121027  RH  038%=      5-min Rain = 0
KEA1 140136Z 23011KT 11/M03 A299 RMK A01 T01141027  RH  037%=      5-min Rain = 0
KEA1 140137Z 23013KT 12/M03 A2989 RMK A01 T01181027  RH  036%=      5-min Rain = 0
KEA1 140138Z 22013KT 12/M03 A2989 RMK A01 T01201027  RH  036%=      5-min Rain = 0
KEA1 140139Z 22012KT 12/M03 A2989 RMK A01 T01221028  RH  035%=      5-min Rain = 0
KEA1 140140Z 23014KT 12/M03 A2989 RMK A01 T01231029  RH  035%=      5-min Rain = 0
KEA1 140141Z 23013KT 12/M03 A2989 RMK A01 T01231030  RH  034%=      5-min Rain = 0
KEA1 140142Z 23016KT 12/M03 A2989 RMK A01 T01231030  RH  034%=      5-min Rain = 0
KEA1 140143Z 23015KT 12/M03 A2989 RMK A01 T01241031  RH  034%=      5-min Rain = 0
KEA1 140144Z 23014KT 13/M03 A2989 RMK A01 T01251031  RH  034%=      5-min Rain = 0
KEA1 140145Z 23014KT 12/M03 A2989 RMK A01 T01221031  RH  034%=      5-min Rain = 0
KEA1 140146Z 23013KT 12/M03 A2989 RMK A01 T01221031  RH  034%=      5-min Rain = 0
KEA1 140147Z 23013KT 12/M03 A2989 RMK A01 T01221031  RH  034%=      5-min Rain = 0
KEA1 140148Z 23014KT 12/M03 A2989 RMK A01 T01211031  RH  034%=      5-min Rain = 0
KEA1 140149Z 23013KT 12/M03 A2989 RMK A01 T01211031  RH  035%=      5-min Rain = 0
KEA1 140150Z 23014KT 12/M03 A2989 RMK A01 T01211032  RH  034%=      5-min Rain = 0
KEA1 140151Z 23014KT 12/M03 A2988 RMK A01 T01241033  RH  033%=      5-min Rain = 0
KEA1 140152Z 23014KT 13/M03 A2988 RMK A01 T01261032  RH  033%=      5-min Rain = 0
KEA1 140153Z 23014KT 13/M03 A2988 RMK A01 T01251033  RH  033%=      5-min Rain = 0
KEA1 140154Z 23014KT 13/M03 A2988 RMK A01 T01251033  RH  033%=      5-min Rain = 0
KEA1 140155Z 23015KT 12/M03 A2988 RMK A01 T01241034  RH  033%=      5-min Rain = 0
KEA1 140156Z 23015KT 12/M03 A2988 RMK A01 T01241033  RH  033%=      5-min Rain = 0
KEA1 140157Z 23015KT 12/M03 A2988 RMK A01 T01231033  RH  033%=      5-min Rain = 0
KEA1 140158Z 23014KT 12/M03 A2988 RMK A01 T01221033  RH  034%=      5-min Rain = 0
KEA1 140159Z 23014KT 12/M03 A2988 RMK A01 T01201033  RH  034%=      5-min Rain = 0
KEA1 140200Z 23013KT 12/M03 A2989 RMK A01 T01161033  RH  035%=      5-min Rain = 0
KEA1 140201Z 23013KT 11/M03 A2989 RMK A01 T01141031  RH  036%=      5-min Rain = 0
KEA1 140202Z 23014KT 11/M03 A2989 RMK A01 T01111031  RH  037%=      5-min Rain = 0
KEA1 140203Z 23013KT 11/M03 A2989 RMK A01 T01091030  RH  038%=      5-min Rain = 0
KEA1 140204Z 23014KT 11/M03 A2989 RMK A01 T01081030  RH  038%=      5-min Rain = 0
KEA1 140205Z 23014KT 11/M03 A2989 RMK A01 T01061029  RH  038%=      5-min Rain = 0
KEA1 140206Z 24014KT 11/M03 A2989 RMK A01 T01061029  RH  039%=      5-min Rain = 0
KEA1 140207Z 24014KT 11/M03 A2989 RMK A01 T01051028  RH  039%=      5-min Rain = 0
KEA1 140208Z 23014KT 10/M03 A2989 RMK A01 T01021028  RH  040%=      5-min Rain = 0
KEA1 140209Z 23014KT 10/M03 A2988 RMK A01 T01001028  RH  040%=      5-min Rain = 0
KEA1 140210Z 24013KT 10/M03 A2988 RMK A01 T01001027  RH  041%=      5-min Rain = 0
KEA1 140211Z 24014KT 10/M03 A2988 RMK A01 T01001027  RH  041%=      5-min Rain = 0
KEA1 140212Z 24014KT 10/M03 A2988 RMK A01 T00991027  RH  041%=      5-min Rain = 0
KEA1 140213Z 24013KT 10/M03 A2988 RMK A01 T00981027  RH  041%=      5-min Rain = 0
KEA1 140214Z 24012KT 10/M03 A2988 RMK A01 T00981027  RH  042%=      5-min Rain = 0
KEA1 140215Z 24012KT 10/M03 A2988 RMK A01 T00971027  RH  042%=      5-min Rain = 0
KEA1 140216Z 24011KT 10/M03 A2988 RMK A01 T00951026  RH  042%=      5-min Rain = 0
KEA1 140217Z 24011KT 09/M03 A2988 RMK A01 T00931026  RH  043%=      5-min Rain = 0
KEA1 140218Z 24011KT 09/M03 A2988 RMK A01 T00911026  RH  044%=      5-min Rain = 0
KEA1 140219Z 24010KT 09/M03 A2988 RMK A01 T00901026  RH  044%=      5-min Rain = 0
KEA1 140220Z 24011KT 09/M03 A2988 RMK A01 T00891026  RH  044%=      5-min Rain = 0
KEA1 140221Z 24010KT 09/M03 A2988 RMK A01 T00881026  RH  045%=      5-min Rain = 0
KEA1 140222Z 24010KT 09/M03 A2988 RMK A01 T00871026  RH  045%=      5-min Rain = 0
KEA1 140223Z 24009KT 09/M03 A2988 RMK A01 T00861026  RH  045%=      5-min Rain = 0
KEA1 140224Z 24009KT 09/M03 A2988 RMK A01 T00851026  RH  046%=      5-min Rain = 0
KEA1 140225Z 24009KT 08/M03 A2988 RMK A01 T00841025  RH  046%=      5-min Rain = 0
KEA1 140226Z 24009KT 08/M03 A2988 RMK A01 T00821025  RH  047%=      5-min Rain = 0
KEA1 140227Z 23009KT 08/M03 A2988 RMK A01 T00811026  RH  047%=      5-min Rain = 0
KEA1 140228Z 23010KT 08/M03 A2988 RMK A01 T00801026  RH  047%=      5-min Rain = 0
KEA1 140229Z 23010KT 08/M03 A2988 RMK A01 T00801025  RH  047%=      5-min Rain = 0
KEA1 140230Z 23011KT 08/M03 A2988 RMK A01 T00801025  RH  047%=      5-min Rain = 0
KEA1 140231Z 24011KT 08/M03 A2988 RMK A01 T00811025  RH  047%=      5-min Rain = 0
KEA1 140232Z 23010KT 08/M03 A2988 RMK A01 T00811025  RH  047%=      5-min Rain = 0
KEA1 140233Z 24010KT 08/M02 A2988 RMK A01 T00811024  RH  047%=      5-min Rain = 0
KEA1 140234Z 24011KT 08/M02 A2988 RMK A01 T00811024  RH  047%=      5-min Rain = 0
KEA1 140235Z 24011KT 08/M02 A2988 RMK A01 T00801024  RH  048%=      5-min Rain = 0
KEA1 140236Z 24011KT 08/M02 A2988 RMK A01 T00791024  RH  048%=      5-min Rain = 0
KEA1 140237Z 24011KT 08/M02 A2988 RMK A01 T00781024  RH  049%=      5-min Rain = 0
KEA1 140238Z 24010KT 08/M02 A2988 RMK A01 T00781024  RH  049%=      5-min Rain = 0
KEA1 140239Z 24010KT 08/M02 A2988 RMK A01 T00771023  RH  049%=      5-min Rain = 0
KEA1 140240Z 24010KT 08/M02 A2988 RMK A01 T00771023  RH  049%=      5-min Rain = 0
KEA1 140241Z 24011KT 08/M02 A2988 RMK A01 T00751024  RH  049%=      5-min Rain = 0
KEA1 140242Z 24010KT 08/M02 A2988 RMK A01 T00751023  RH  050%=      5-min Rain = 0
KEA1 140243Z 23010KT 07/M02 A2988 RMK A01 T00741023  RH  050%=      5-min Rain = 0
KEA1 140244Z 24010KT 07/M02 A2988 RMK A01 T00741023  RH  050%=      5-min Rain = 0
KEA1 140245Z 24010KT 07/M02 A2988 RMK A01 T00731023  RH  051%=      5-min Rain = 0
KEA1 140246Z 24010KT 07/M02 A2988 RMK A01 T00721023  RH  051%=      5-min Rain = 0
KEA1 140247Z 24010KT 07/M02 A2988 RMK A01 T00731023  RH  051%=      5-min Rain = 0
KEA1 140248Z 24009KT 07/M02 A2988 RMK A01 T00721023  RH  051%=      5-min Rain = 0
KEA1 140249Z 24009KT 07/M02 A2987 RMK A01 T00711023  RH  051%=      5-min Rain = 0
KEA1 140250Z 24009KT 07/M02 A2987 RMK A01 T00711023  RH  051%=      5-min Rain = 0
KEA1 140251Z 24009KT 07/M02 A2987 RMK A01 T00701023  RH  051%=      5-min Rain = 0
KEA1 140252Z 24009KT 07/M02 A2987 RMK A01 T00691023  RH  052%=      5-min Rain = 0
KEA1 140253Z 24009KT 07/M02 A2987 RMK A01 T00691023  RH  052%=      5-min Rain = 0
KEA1 140254Z 24009KT 07/M02 A2987 RMK A01 T00691023  RH  052%=      5-min Rain = 0
KEA1 140255Z 24010KT 07/M02 A2987 RMK A01 T00691023  RH  052%=      5-min Rain = 0
KEA1 140256Z 24009KT 07/M02 A2987 RMK A01 T00681023  RH  052%=      5-min Rain = 0
KEA1 140257Z 24009KT 07/M02 A2987 RMK A01 T00681023  RH  052%=      5-min Rain = 0
KEA1 140258Z 25009KT 07/M02 A2987 RMK A01 T00681023  RH  052%=      5-min Rain = 0
KEA1 140259Z 24010KT 07/M02 A2987 RMK A01 T00681022  RH  052%=      5-min Rain = 0
KEA1 140300Z 24009KT 07/M02 A2988 RMK A01 T00671023  RH  053%=      5-min Rain = 0
KEA1 140301Z 24010KT 07/M02 A2988 RMK A01 T00671023  RH  053%=      5-min Rain = 0
KEA1 140302Z 24010KT 07/M02 A2988 RMK A01 T00671023  RH  053%=      5-min Rain = 0
KEA1 140303Z 24010KT 07/M02 A2988 RMK A01 T00661023  RH  053%=      5-min Rain = 0
KEA1 140304Z 24009KT 07/M02 A2988 RMK A01 T00661023  RH  053%=      5-min Rain = 0
KEA1 140305Z 24009KT 07/M02 A2988 RMK A01 T00651023  RH  053%=      5-min Rain = 0
KEA1 140306Z 24009KT 07/M02 A2988 RMK A01 T00651023  RH  053%=      5-min Rain = 0
KEA1 140307Z 24009KT 07/M02 A2988 RMK A01 T00651023  RH  053%=      5-min Rain = 0
KEA1 140308Z 24009KT 07/M02 A2988 RMK A01 T00651023  RH  053%=      5-min Rain = 0
KEA1 140309Z 24009KT 06/M02 A2988 RMK A01 T00641023  RH  054%=      5-min Rain = 0
KEA1 140310Z 25009KT 06/M02 A2988 RMK A01 T00631024  RH  054%=      5-min Rain = 0
KEA1 140311Z 25009KT 06/M02 A2988 RMK A01 T00611024  RH  054%=      5-min Rain = 0
KEA1 140312Z 25009KT 06/M02 A2988 RMK A01 T00611023  RH  055%=      5-min Rain = 0
KEA1 140313Z 25009KT 06/M02 A2988 RMK A01 T00611023  RH  055%=      5-min Rain = 0
KEA1 140314Z 25009KT 06/M02 A2988 RMK A01 T00611022  RH  056%=      5-min Rain = 0
KEA1 140315Z 26009KT 06/M02 A2988 RMK A01 T00601022  RH  056%=      5-min Rain = 0
KEA1 140316Z 26009KT 06/M02 A2988 RMK A01 T00571022  RH  056%=      5-min Rain = 0
KEA1 140317Z 26008KT 06/M02 A2988 RMK A01 T00551023  RH  057%=      5-min Rain = 0
KEA1 140318Z 26008KT 05/M02 A2988 RMK A01 T00531023  RH  058%=      5-min Rain = 0
KEA1 140319Z 25008KT 05/M02 A2988 RMK A01 T00511023  RH  059%=      5-min Rain = 0
KEA1 140320Z 25008KT 05/M02 A2988 RMK A01 T00491022  RH  060%=      5-min Rain = 0
KEA1 140321Z 25008KT 05/M02 A2988 RMK A01 T00481022  RH  061%=      5-min Rain = 0
KEA1 140322Z 25009KT 05/M02 A2988 RMK A01 T00461022  RH  061%=      5-min Rain = 0
KEA1 140323Z 26008KT 05/M02 A2988 RMK A01 T00451021  RH  062%=      5-min Rain = 0
KEA1 140324Z 26009KT 04/M02 A2988 RMK A01 T00441022  RH  062%=      5-min Rain = 0
KEA1 140325Z 26010KT 04/M02 A2988 RMK A01 T00441021  RH  063%=      5-min Rain = 0
KEA1 140326Z 25009KT 04/M02 A2988 RMK A01 T00431021  RH  063%=      5-min Rain = 0
KEA1 140327Z 25009KT 04/M02 A2987 RMK A01 T00431022  RH  063%=      5-min Rain = 0
KEA1 140328Z 25009KT 04/M02 A2987 RMK A01 T00431022  RH  063%=      5-min Rain = 0
KEA1 140329Z 25009KT 04/M02 A2987 RMK A01 T00431021  RH  063%=      5-min Rain = 0
KEA1 140330Z 25009KT 04/M02 A2987 RMK A01 T00431021  RH  063%=      5-min Rain = 0
KEA1 140331Z 25009KT 04/M02 A2987 RMK A01 T00421021  RH  063%=      5-min Rain = 0
KEA1 140332Z 25009KT 04/M02 A2987 RMK A01 T00421021  RH  064%=      5-min Rain = 0
KEA1 140333Z 25009KT 04/M02 A2987 RMK A01 T00431021  RH  063%=      5-min Rain = 0
KEA1 140334Z 25009KT 04/M02 A2987 RMK A01 T00431020  RH  063%=      5-min Rain = 0
KEA1 140335Z 25009KT 04/M02 A2987 RMK A01 T00441020  RH  063%=      5-min Rain = 0
KEA1 140336Z 25009KT 05/M02 A2987 RMK A01 T00451020  RH  063%=      5-min Rain = 0
KEA1 140337Z 25009KT 05/M02 A2987 RMK A01 T00451021  RH  063%=      5-min Rain = 0
KEA1 140338Z 25009KT 05/M02 A2987 RMK A01 T00461020  RH  062%=      5-min Rain = 0
KEA1 140339Z 25009KT 05/M02 A2987 RMK A01 T00471020  RH  062%=      5-min Rain = 0
KEA1 140340Z 25009KT 05/M02 A2987 RMK A01 T00471020  RH  062%=      5-min Rain = 0
KEA1 140341Z 25009KT 05/M02 A2987 RMK A01 T00481021  RH  061%=      5-min Rain = 0
KEA1 140342Z 25009KT 05/M02 A2987 RMK A01 T00481021  RH  061%=      5-min Rain = 0
KEA1 140343Z 25009KT 05/M02 A2987 RMK A01 T00491020  RH  061%=      5-min Rain = 0
KEA1 140344Z 25009KT 05/M02 A2987 RMK A01 T00491021  RH  061%=      5-min Rain = 0
KEA1 140345Z 24009KT 05/M02 A2987 RMK A01 T00491021  RH  060%=      5-min Rain = 0
KEA1 140346Z 24009KT 05/M02 A2987 RMK A01 T00491021  RH  060%=      5-min Rain = 0
KEA1 140347Z 24009KT 05/M02 A2987 RMK A01 T00501021  RH  060%=      5-min Rain = 0
KEA1 140348Z 24008KT 05/M02 A2987 RMK A01 T00511021  RH  060%=      5-min Rain = 0
KEA1 140349Z 24008KT 05/M02 A2987 RMK A01 T00521021  RH  059%=      5-min Rain = 0
KEA1 140350Z 24008KT 05/M02 A2986 RMK A01 T00531021  RH  059%=      5-min Rain = 0
KEA1 140351Z 24008KT 05/M02 A2986 RMK A01 T00531021  RH  059%=      5-min Rain = 0
KEA1 140352Z 24008KT 05/M02 A2986 RMK A01 T00531022  RH  059%=      5-min Rain = 0
KEA1 140353Z 24008KT 05/M02 A2986 RMK A01 T00521021  RH  059%=      5-min Rain = 0
KEA1 140354Z 24008KT 05/M02 A2986 RMK A01 T00511022  RH  059%=      5-min Rain = 0
KEA1 140355Z 24008KT 05/M02 A2986 RMK A01 T00521022  RH  059%=      5-min Rain = 0
KEA1 140356Z 24008KT 05/M02 A2986 RMK A01 T00521021  RH  059%=      5-min Rain = 0
KEA1 140357Z 24009KT 05/M02 A2986 RMK A01 T00521022  RH  059%=      5-min Rain = 0
KEA1 140358Z 24009KT 05/M02 A2986 RMK A01 T00521022  RH  059%=      5-min Rain = 0
KEA1 140359Z 24009KT 05/M02 A2986 RMK A01 T00531022  RH  059%=      5-min Rain = 0
KEA1 140400Z 24009KT 05/M02 A2986 RMK A01 T00541022  RH  058%=      5-min Rain = 0
KEA1 140401Z 24009KT 06/M02 A2986 RMK A01 T00551023  RH  057%=      5-min Rain = 0
KEA1 140402Z 24009KT 06/M02 A2986 RMK A01 T00561023  RH  057%=      5-min Rain = 0
KEA1 140403Z 24009KT 06/M02 A2986 RMK A01 T00561023  RH  057%=      5-min Rain = 0
KEA1 140404Z 24009KT 06/M02 A2986 RMK A01 T00571024  RH  056%=      5-min Rain = 0
KEA1 140405Z 24009KT 06/M02 A2986 RMK A01 T00581023  RH  056%=      5-min Rain = 0
KEA1 140406Z 24009KT 06/M02 A2986 RMK A01 T00581024  RH  056%=      5-min Rain = 0
KEA1 140407Z 24009KT 06/M02 A2986 RMK A01 T00581024  RH  056%=      5-min Rain = 0
KEA1 140408Z 25009KT 06/M02 A2986 RMK A01 T00591023  RH  056%=      5-min Rain = 0
KEA1 140409Z 24009KT 06/M02 A2986 RMK A01 T00581023  RH  056%=      5-min Rain = 0
KEA1 140410Z 25009KT 06/M02 A2986 RMK A01 T00571024  RH  056%=      5-min Rain = 0
KEA1 140411Z 24009KT 06/M02 A2986 RMK A01 T00571023  RH  056%=      5-min Rain = 0
KEA1 140412Z 24009KT 06/M02 A2986 RMK A01 T00561023  RH  056%=      5-min Rain = 0
KEA1 140413Z 25010KT 06/M02 A2986 RMK A01 T00571023  RH  056%=      5-min Rain = 0
KEA1 140414Z 25010KT 06/M02 A2986 RMK A01 T00581023  RH  056%=      5-min Rain = 0
KEA1 140415Z 25009KT 06/M02 A2986 RMK A01 T00571023  RH  056%=      5-min Rain = 0
KEA1 140416Z 25009KT 06/M02 A2986 RMK A01 T00561023  RH  057%=      5-min Rain = 0
KEA1 140417Z 24010KT 05/M02 A2985 RMK A01 T00541023  RH  058%=      5-min Rain = 0
KEA1 140418Z 24010KT 05/M02 A2985 RMK A01 T00531023  RH  058%=      5-min Rain = 0
KEA1 140419Z 24010KT 05/M02 A2985 RMK A01 T00531023  RH  058%=      5-min Rain = 0
KEA1 140420Z 25010KT 05/M02 A2985 RMK A01 T00541023  RH  058%=      5-min Rain = 0
KEA1 140421Z 25010KT 05/M02 A2985 RMK A01 T00541023  RH  058%=      5-min Rain = 0
KEA1 140422Z 25010KT 05/M02 A2985 RMK A01 T00541021  RH  058%=      5-min Rain = 0
KEA1 140423Z 25010KT 05/M02 A2986 RMK A01 T00531022  RH  058%=      5-min Rain = 0
KEA1 140424Z 25010KT 05/M02 A2986 RMK A01 T00521021  RH  059%=      5-min Rain = 0
KEA1 140425Z 26011KT 05/M02 A2986 RMK A01 T00501021  RH  060%=      5-min Rain = 0
KEA1 140426Z 26010KT 05/M02 A2986 RMK A01 T00491021  RH  060%=      5-min Rain = 0
KEA1 140427Z 25010KT 05/M02 A2986 RMK A01 T00491021  RH  061%=      5-min Rain = 0
KEA1 140428Z 25011KT 05/M02 A2986 RMK A01 T00481021  RH  061%=      5-min Rain = 0
KEA1 140429Z 25011KT 05/M02 A2986 RMK A01 T00471021  RH  061%=      5-min Rain = 0
KEA1 140430Z 25011KT 05/M02 A2986 RMK A01 T00461021  RH  062%=      5-min Rain = 0
KEA1 140431Z 25011KT 05/M02 A2986 RMK A01 T00451020  RH  063%=      5-min Rain = 0
KEA1 140432Z 25011KT 05/M02 A2986 RMK A01 T00451019  RH  063%=      5-min Rain = 0
KEA1 140433Z 25010KT 05/M02 A2986 RMK A01 T00451019  RH  063%=      5-min Rain = 0
KEA1 140434Z 25011KT 05/M02 A2986 RMK A01 T00451019  RH  063%=      5-min Rain = 0
KEA1 140435Z 25011KT 05/M02 A2986 RMK A01 T00461019  RH  063%=      5-min Rain = 0
KEA1 140436Z 25011KT 05/M02 A2986 RMK A01 T00471018  RH  063%=      5-min Rain = 0
KEA1 140437Z 25010KT 05/M02 A2986 RMK A01 T00481018  RH  062%=      5-min Rain = 0
KEA1 140438Z 26011KT 05/M02 A2987 RMK A01 T00491017  RH  062%=      5-min Rain = 0
KEA1 140439Z 26011KT 05/M02 A2987 RMK A01 T00491017  RH  062%=      5-min Rain = 0
KEA1 140440Z 26011KT 05/M02 A2987 RMK A01 T00481018  RH  062%=      5-min Rain = 0
KEA1 140441Z 26011KT 05/M02 A2987 RMK A01 T00481018  RH  062%=      5-min Rain = 0
KEA1 140442Z 26010KT 05/M02 A2987 RMK A01 T00481018  RH  062%=      5-min Rain = 0
KEA1 140443Z 26010KT 05/M02 A2987 RMK A01 T00471018  RH  063%=      5-min Rain = 0
KEA1 140444Z 26010KT 05/M02 A2988 RMK A01 T00471017  RH  063%=      5-min Rain = 0
KEA1 140445Z 27010KT 05/M02 A2988 RMK A01 T00481017  RH  063%=      5-min Rain = 0
KEA1 140446Z 26010KT 05/M02 A2988 RMK A01 T00481017  RH  063%=      5-min Rain = 0
KEA1 140447Z 26010KT 05/M02 A2987 RMK A01 T00471017  RH  063%=      5-min Rain = 0
KEA1 140448Z 26009KT 05/M02 A2987 RMK A01 T00471017  RH  063%=      5-min Rain = 0
KEA1 140449Z 26009KT 05/M02 A2987 RMK A01 T00471017  RH  063%=      5-min Rain = 0
KEA1 140450Z 26010KT 05/M02 A2987 RMK A01 T00471017  RH  063%=      5-min Rain = 0
KEA1 140451Z 25011KT 05/M02 A2987 RMK A01 T00471017  RH  063%=      5-min Rain = 0
KEA1 140452Z 25011KT 05/M02 A2987 RMK A01 T00481017  RH  063%=      5-min Rain = 0
KEA1 140453Z 25010KT 05/M02 A2986 RMK A01 T00501017  RH  062%=      5-min Rain = 0
KEA1 140454Z 25010KT 05/M02 A2986 RMK A01 T00501017  RH  062%=      5-min Rain = 0
KEA1 140455Z 25010KT 05/M02 A2986 RMK A01 T00511018  RH  061%=      5-min Rain = 0
KEA1 140456Z 25010KT 05/M02 A2986 RMK A01 T00521017  RH  061%=      5-min Rain = 0
KEA1 140457Z 25010KT 05/M02 A2986 RMK A01 T00501018  RH  062%=      5-min Rain = 0
KEA1 140458Z 25010KT 05/M02 A2986 RMK A01 T00501017  RH  062%=      5-min Rain = 0
KEA1 140459Z 25010KT 05/M02 A2986 RMK A01 T00501017  RH  062%=      5-min Rain = 0
KEA1 140500Z 26010KT 05/M02 A2986 RMK A01 T00491017  RH  062%=      5-min Rain = 0
KEA1 140501Z 26010KT 05/M02 A2986 RMK A01 T00481017  RH  063%=      5-min Rain = 0
KEA1 140502Z 26010KT 05/M02 A2986 RMK A01 T00471017  RH  063%=      5-min Rain = 0
KEA1 140503Z 25009KT 05/M02 A2986 RMK A01 T00471017  RH  063%=      5-min Rain = 0
KEA1 140504Z 25009KT 05/M02 A2985 RMK A01 T00461017  RH  063%=      5-min Rain = 0
KEA1 140505Z 25009KT 05/M02 A2986 RMK A01 T00461017  RH  063%=      5-min Rain = 0
KEA1 140506Z 26010KT 05/M02 A2986 RMK A01 T00461017  RH  064%=      5-min Rain = 0
KEA1 140507Z 26011KT 05/M02 A2986 RMK A01 T00451017  RH  064%=      5-min Rain = 0
KEA1 140508Z 26010KT 05/M02 A2986 RMK A01 T00451017  RH  064%=      5-min Rain = 0
KEA1 140509Z 26011KT 05/M02 A2987 RMK A01 T00451016  RH  064%=      5-min Rain = 0
KEA1 140510Z 26011KT 05/M02 A2987 RMK A01 T00451017  RH  064%=      5-min Rain = 0
KEA1 140511Z 26010KT 05/M02 A2987 RMK A01 T00451017  RH  064%=      5-min Rain = 0
KEA1 140512Z 25009KT 05/M02 A2986 RMK A01 T00461016  RH  064%=      5-min Rain = 0
KEA1 140513Z 25009KT 05/M02 A2986 RMK A01 T00461017  RH  064%=      5-min Rain = 0
KEA1 140514Z 25009KT 05/M02 A2986 RMK A01 T00471017  RH  063%=      5-min Rain = 0
KEA1 140515Z 26010KT 05/M02 A2986 RMK A01 T00481017  RH  063%=      5-min Rain = 0
KEA1 140516Z 26010KT 05/M02 A2986 RMK A01 T00491017  RH  062%=      5-min Rain = 0
KEA1 140517Z 27009KT 05/M02 A2986 RMK A01 T00501017  RH  062%=      5-min Rain = 0
KEA1 140518Z 27009KT 05/M02 A2986 RMK A01 T00501017  RH  062%=      5-min Rain = 0
KEA1 140519Z 27009KT 05/M02 A2986 RMK A01 T00501017  RH  062%=      5-min Rain = 0
KEA1 140520Z 27010KT 05/M02 A2986 RMK A01 T00491017  RH  062%=      5-min Rain = 0
KEA1 140521Z 27009KT 05/M02 A2986 RMK A01 T00491017  RH  062%=      5-min Rain = 0
KEA1 140522Z 27009KT 05/M02 A2986 RMK A01 T00491017  RH  062%=      5-min Rain = 0
KEA1 140523Z 27009KT 05/M02 A2986 RMK A01 T00491017  RH  062%=      5-min Rain = 0
KEA1 140524Z 28009KT 05/M02 A2986 RMK A01 T00501016  RH  062%=      5-min Rain = 0
KEA1 140525Z 28009KT 05/M02 A2986 RMK A01 T00501016  RH  063%=      5-min Rain = 0
KEA1 140526Z 28008KT 05/M02 A2986 RMK A01 T00491016  RH  063%=      5-min Rain = 0
KEA1 140527Z 27008KT 05/M02 A2986 RMK A01 T00491016  RH  063%=      5-min Rain = 0
KEA1 140528Z 27007KT 05/M02 A2986 RMK A01 T00481016  RH  063%=      5-min Rain = 0
KEA1 140529Z 27006KT 05/M02 A2986 RMK A01 T00471017  RH  063%=      5-min Rain = 0
KEA1 140530Z 27006KT 05/M02 A2986 RMK A01 T00461017  RH  064%=      5-min Rain = 0
KEA1 140531Z 27006KT 05/M02 A2986 RMK A01 T00461016  RH  064%=      5-min Rain = 0
KEA1 140532Z 27006KT 05/M02 A2986 RMK A01 T00451017  RH  064%=      5-min Rain = 0
KEA1 140533Z 27006KT 04/M02 A2986 RMK A01 T00441017  RH  064%=      5-min Rain = 0
KEA1 140534Z 27006KT 04/M02 A2986 RMK A01 T00441017  RH  065%=      5-min Rain = 0
KEA1 140535Z 26007KT 04/M02 A2986 RMK A01 T00431017  RH  065%=      5-min Rain = 0
KEA1 140536Z 27007KT 04/M02 A2986 RMK A01 T00421017  RH  065%=      5-min Rain = 0
KEA1 140537Z 26008KT 04/M02 A2986 RMK A01 T00421017  RH  065%=      5-min Rain = 0
KEA1 140538Z 27008KT 04/M02 A2986 RMK A01 T00411017  RH  066%=      5-min Rain = 0
KEA1 140539Z 26008KT 04/M02 A2986 RMK A01 T00401017  RH  066%=      5-min Rain = 0
KEA1 140540Z 26008KT 04/M02 A2986 RMK A01 T00401017  RH  066%=      5-min Rain = 0
KEA1 140541Z 26007KT 04/M02 A2986 RMK A01 T00401017  RH  066%=      5-min Rain = 0
KEA1 140542Z 26008KT 04/M02 A2986 RMK A01 T00401016  RH  067%=      5-min Rain = 0
KEA1 140543Z 26008KT 04/M02 A2986 RMK A01 T00401017  RH  067%=      5-min Rain = 0
KEA1 140544Z 26009KT 04/M02 A2986 RMK A01 T00401016  RH  067%=      5-min Rain = 0
KEA1 140545Z 26009KT 04/M02 A2987 RMK A01 T00401016  RH  067%=      5-min Rain = 0
KEA1 140546Z 27009KT 04/M02 A2987 RMK A01 T00391016  RH  067%=      5-min Rain = 0
KEA1 140547Z 27010KT 04/M02 A2987 RMK A01 T00381016  RH  068%=      5-min Rain = 0
KEA1 140548Z 27010KT 04/M02 A2987 RMK A01 T00381016  RH  068%=      5-min Rain = 0
KEA1 140549Z 27009KT 04/M02 A2987 RMK A01 T00381016  RH  068%=      5-min Rain = 0
KEA1 140550Z 27009KT 04/M02 A2987 RMK A01 T00381015  RH  068%=      5-min Rain = 0
KEA1 140551Z 27009KT 04/M02 A2987 RMK A01 T00371015  RH  069%=      5-min Rain = 0
KEA1 140552Z 27009KT 04/M02 A2987 RMK A01 T00371015  RH  069%=      5-min Rain = 0
KEA1 140553Z 26009KT 04/M02 A2987 RMK A01 T00381015  RH  069%=      5-min Rain = 0
KEA1 140554Z 26008KT 04/M02 A2986 RMK A01 T00381015  RH  068%=      5-min Rain = 0
KEA1 140555Z 26007KT 04/M02 A2986 RMK A01 T00381015  RH  068%=      5-min Rain = 0
KEA1 140556Z 26008KT 04/M01 A2986 RMK A01 T00391014  RH  068%=      5-min Rain = 0
KEA1 140557Z 26009KT 04/M01 A2986 RMK A01 T00391014  RH  068%=      5-min Rain = 0
KEA1 140558Z 26009KT 04/M01 A2987 RMK A01 T00391014  RH  068%=      5-min Rain = 0
KEA1 140559Z 26008KT 04/M01 A2986 RMK A01 T00401014  RH  068%=      5-min Rain = 0

Page generated in 0.0648 seconds.